Observation data for Mertzon on 05/29/2019      Previous  Date  Next       Current Mesonet Observations  Soil Data  Daily Summary Page  Observations in Plain Language
KME1 290500Z 16008KT 24/19 A2976 RMK A01 T02410190  RH  073%=      5-min Rain = 0
KME1 290501Z 16007KT 24/19 A2976 RMK A01 T02410190  RH  073%=      5-min Rain = 0
KME1 290502Z 16009KT 24/19 A2976 RMK A01 T02410190  RH  073%=      5-min Rain = 0
KME1 290503Z 16009KT 24/19 A2976 RMK A01 T02410190  RH  073%=      5-min Rain = 0
KME1 290504Z 17009KT 24/19 A2976 RMK A01 T02410190  RH  073%=      5-min Rain = 0
KME1 290505Z 16010KT 24/19 A2976 RMK A01 T02410189  RH  073%=      5-min Rain = 0
KME1 290506Z 16009KT 24/19 A2976 RMK A01 T02410189  RH  073%=      5-min Rain = 0
KME1 290507Z 16007KT 24/19 A2976 RMK A01 T02410189  RH  073%=      5-min Rain = 0
KME1 290508Z 16008KT 24/19 A2976 RMK A01 T02410189  RH  073%=      5-min Rain = 0
KME1 290509Z 16008KT 24/19 A2976 RMK A01 T02410189  RH  073%=      5-min Rain = 0
KME1 290510Z 16008KT 24/19 A2976 RMK A01 T02410189  RH  073%=      5-min Rain = 0
KME1 290511Z 16008KT 24/19 A2976 RMK A01 T02410189  RH  073%=      5-min Rain = 0
KME1 290512Z 16007KT 24/19 A2976 RMK A01 T02400189  RH  073%=      5-min Rain = 0
KME1 290513Z 16007KT 24/19 A2976 RMK A01 T02400189  RH  073%=      5-min Rain = 0
KME1 290514Z 17008KT 24/19 A2976 RMK A01 T02400189  RH  073%=      5-min Rain = 0
KME1 290515Z 16007KT 24/19 A2976 RMK A01 T02400188  RH  073%=      5-min Rain = 0
KME1 290516Z 16007KT 24/19 A2976 RMK A01 T02400189  RH  073%=      5-min Rain = 0
KME1 290517Z 16007KT 24/19 A2976 RMK A01 T02390189  RH  073%=      5-min Rain = 0
KME1 290518Z 16006KT 24/19 A2976 RMK A01 T02390189  RH  073%=      5-min Rain = 0
KME1 290519Z 15007KT 24/19 A2976 RMK A01 T02380189  RH  074%=      5-min Rain = 0
KME1 290520Z 15007KT 24/19 A2976 RMK A01 T02380188  RH  074%=      5-min Rain = 0
KME1 290521Z 16009KT 24/19 A2976 RMK A01 T02380188  RH  073%=      5-min Rain = 0
KME1 290522Z 16007KT 24/19 A2976 RMK A01 T02390188  RH  073%=      5-min Rain = 0
KME1 290523Z 15007KT 24/19 A2976 RMK A01 T02400188  RH  073%=      5-min Rain = 0
KME1 290524Z 15008KT 24/19 A2976 RMK A01 T02400188  RH  073%=      5-min Rain = 0
KME1 290525Z 15007KT 24/19 A2976 RMK A01 T02400188  RH  073%=      5-min Rain = 0
KME1 290526Z 15005KT 24/19 A2976 RMK A01 T02390188  RH  073%=      5-min Rain = 0
KME1 290527Z 15005KT 24/19 A2976 RMK A01 T02390188  RH  073%=      5-min Rain = 0
KME1 290528Z 15006KT 24/19 A2976 RMK A01 T02380188  RH  074%=      5-min Rain = 0
KME1 290529Z 15006KT 24/19 A2976 RMK A01 T02380188  RH  074%=      5-min Rain = 0
KME1 290530Z 15007KT 24/19 A2976 RMK A01 T02370187  RH  074%=      5-min Rain = 0
KME1 290531Z 16006KT 24/19 A2976 RMK A01 T02380187  RH  073%=      5-min Rain = 0
KME1 290532Z 15007KT 24/19 A2976 RMK A01 T02370188  RH  074%=      5-min Rain = 0
KME1 290533Z 15006KT 24/19 A2976 RMK A01 T02370188  RH  074%=      5-min Rain = 0
KME1 290534Z 14008KT 24/19 A2976 RMK A01 T02370188  RH  074%=      5-min Rain = 0
KME1 290535Z 15007KT 24/19 A2976 RMK A01 T02370188  RH  074%=      5-min Rain = 0
KME1 290536Z 15008KT 24/19 A2976 RMK A01 T02370189  RH  074%=      5-min Rain = 0
KME1 290537Z 15007KT 24/19 A2976 RMK A01 T02370189  RH  074%=      5-min Rain = 0
KME1 290538Z 16007KT 24/19 A2976 RMK A01 T02370189  RH  074%=      5-min Rain = 0
KME1 290539Z 15007KT 24/19 A2976 RMK A01 T02360189  RH  075%=      5-min Rain = 0
KME1 290540Z 15008KT 24/19 A2976 RMK A01 T02360189  RH  075%=      5-min Rain = 0
KME1 290541Z 15009KT 24/19 A2976 RMK A01 T02360188  RH  075%=      5-min Rain = 0
KME1 290542Z 15008KT 24/19 A2976 RMK A01 T02360188  RH  075%=      5-min Rain = 0
KME1 290543Z 15007KT 24/19 A2976 RMK A01 T02370189  RH  074%=      5-min Rain = 0
KME1 290544Z 15006KT 24/19 A2976 RMK A01 T02360189  RH  075%=      5-min Rain = 0
KME1 290545Z 15008KT 24/19 A2976 RMK A01 T02370190  RH  075%=      5-min Rain = 0
KME1 290546Z 15010KT 24/19 A2976 RMK A01 T02360190  RH  075%=      5-min Rain = 0
KME1 290547Z 16008KT 24/19 A2976 RMK A01 T02350189  RH  075%=      5-min Rain = 0
KME1 290548Z 16009KT 24/19 A2976 RMK A01 T02350190  RH  075%=      5-min Rain = 0
KME1 290549Z 15009KT 24/19 A2976 RMK A01 T02360190  RH  076%=      5-min Rain = 0
KME1 290550Z 15008KT 24/19 A2976 RMK A01 T02360191  RH  076%=      5-min Rain = 0
KME1 290551Z 15011KT 24/19 A2976 RMK A01 T02350190  RH  076%=      5-min Rain = 0
KME1 290552Z 15009KT 24/19 A2976 RMK A01 T02350191  RH  076%=      5-min Rain = 0
KME1 290553Z 15008KT 24/19 A2976 RMK A01 T02360191  RH  076%=      5-min Rain = 0
KME1 290554Z 15009KT 24/19 A2976 RMK A01 T02360191  RH  076%=      5-min Rain = 0
KME1 290555Z 15009KT 24/19 A2976 RMK A01 T02360192  RH  076%=      5-min Rain = 0
KME1 290556Z 14009KT 24/19 A2976 RMK A01 T02350192  RH  077%=      5-min Rain = 0
KME1 290557Z 15007KT 24/19 A2976 RMK A01 T02350192  RH  077%=      5-min Rain = 0
KME1 290558Z 15008KT 24/19 A2975 RMK A01 T02350192  RH  077%=      5-min Rain = 0
KME1 290559Z 15010KT 24/19 A2975 RMK A01 T02350193  RH  077%=      5-min Rain = 0
KME1 290600Z 15009KT 24/19 A2975 RMK A01 T02350193  RH  077%=      5-min Rain = 0
KME1 290601Z 15008KT 24/19 A2975 RMK A01 T02350193  RH  077%=      5-min Rain = 0
KME1 290602Z 15007KT 24/19 A2975 RMK A01 T02350194  RH  078%=      5-min Rain = 0
KME1 290603Z 15008KT 23/19 A2975 RMK A01 T02340194  RH  078%=      5-min Rain = 0
KME1 290604Z 15009KT 23/20 A2975 RMK A01 T02340195  RH  079%=      5-min Rain = 0
KME1 290605Z 15008KT 23/20 A2975 RMK A01 T02340195  RH  079%=      5-min Rain = 0
KME1 290606Z 15009KT 23/20 A2975 RMK A01 T02340195  RH  079%=      5-min Rain = 0
KME1 290607Z 15007KT 23/20 A2975 RMK A01 T02340196  RH  079%=      5-min Rain = 0
KME1 290608Z 15008KT 23/20 A2975 RMK A01 T02340196  RH  079%=      5-min Rain = 0
KME1 290609Z 15008KT 23/20 A2975 RMK A01 T02340197  RH  080%=      5-min Rain = 0
KME1 290610Z 16007KT 23/20 A2975 RMK A01 T02330197  RH  080%=      5-min Rain = 0
KME1 290611Z 15008KT 23/20 A2975 RMK A01 T02330197  RH  080%=      5-min Rain = 0
KME1 290612Z 15007KT 23/20 A2975 RMK A01 T02320198  RH  081%=      5-min Rain = 0
KME1 290613Z 15007KT 23/20 A2975 RMK A01 T02320198  RH  081%=      5-min Rain = 0
KME1 290614Z 16007KT 23/20 A2975 RMK A01 T02320199  RH  082%=      5-min Rain = 0
KME1 290615Z 15007KT 23/20 A2975 RMK A01 T02310199  RH  082%=      5-min Rain = 0
KME1 290616Z 15005KT 23/20 A2975 RMK A01 T02310199  RH  082%=      5-min Rain = 0
KME1 290617Z 15006KT 23/20 A2975 RMK A01 T02310200  RH  083%=      5-min Rain = 0
KME1 290618Z 15006KT 23/20 A2975 RMK A01 T02300200  RH  083%=      5-min Rain = 0
KME1 290619Z 15005KT 23/20 A2975 RMK A01 T02300200  RH  083%=      5-min Rain = 0
KME1 290620Z 15005KT 23/20 A2975 RMK A01 T02290200  RH  084%=      5-min Rain = 0
KME1 290621Z 15005KT 23/20 A2975 RMK A01 T02290201  RH  084%=      5-min Rain = 0
KME1 290622Z 16004KT 23/20 A2975 RMK A01 T02290201  RH  084%=      5-min Rain = 0
KME1 290623Z 15004KT 23/20 A2975 RMK A01 T02290201  RH  084%=      5-min Rain = 0
KME1 290624Z 15004KT 23/20 A2975 RMK A01 T02290201  RH  085%=      5-min Rain = 0
KME1 290625Z 16004KT 23/20 A2975 RMK A01 T02280201  RH  085%=      5-min Rain = 0
KME1 290626Z 16004KT 23/20 A2975 RMK A01 T02280201  RH  085%=      5-min Rain = 0
KME1 290627Z 16003KT 23/20 A2975 RMK A01 T02280202  RH  085%=      5-min Rain = 0
KME1 290628Z 16004KT 23/20 A2975 RMK A01 T02270202  RH  085%=      5-min Rain = 0
KME1 290629Z 16003KT 23/20 A2975 RMK A01 T02270202  RH  086%=      5-min Rain = 0
KME1 290630Z 16002KT 23/20 A2975 RMK A01 T02270203  RH  086%=      5-min Rain = 0
KME1 290631Z 15004KT 23/20 A2975 RMK A01 T02260202  RH  086%=      5-min Rain = 0
KME1 290632Z 15003KT 23/20 A2975 RMK A01 T02260203  RH  087%=      5-min Rain = 0
KME1 290633Z 15002KT 23/20 A2975 RMK A01 T02260203  RH  087%=      5-min Rain = 0
KME1 290634Z 16003KT 23/20 A2975 RMK A01 T02260203  RH  087%=      5-min Rain = 0
KME1 290635Z 16004KT 23/20 A2975 RMK A01 T02260203  RH  087%=      5-min Rain = 0
KME1 290636Z 15003KT 23/20 A2975 RMK A01 T02270204  RH  087%=      5-min Rain = 0
KME1 290637Z 16003KT 23/20 A2975 RMK A01 T02270204  RH  087%=      5-min Rain = 0
KME1 290638Z 15002KT 23/20 A2975 RMK A01 T02280204  RH  086%=      5-min Rain = 0
KME1 290639Z 15003KT 23/20 A2975 RMK A01 T02270204  RH  086%=      5-min Rain = 0
KME1 290640Z 14002KT 23/20 A2975 RMK A01 T02270203  RH  086%=      5-min Rain = 0
KME1 290641Z 15002KT 23/20 A2975 RMK A01 T02270203  RH  087%=      5-min Rain = 0
KME1 290642Z 13003KT 23/20 A2975 RMK A01 T02260203  RH  087%=      5-min Rain = 0
KME1 290643Z 13003KT 23/20 A2975 RMK A01 T02260204  RH  087%=      5-min Rain = 0
KME1 290644Z 15002KT 23/20 A2975 RMK A01 T02250204  RH  088%=      5-min Rain = 0
KME1 290645Z 15003KT 23/20 A2975 RMK A01 T02250204  RH  088%=      5-min Rain = 0
KME1 290646Z 16003KT 22/20 A2975 RMK A01 T02240204  RH  088%=      5-min Rain = 0
KME1 290647Z 15002KT 22/20 A2975 RMK A01 T02240203  RH  088%=      5-min Rain = 0
KME1 290648Z 15003KT 22/20 A2975 RMK A01 T02230204  RH  089%=      5-min Rain = 0
KME1 290649Z 13004KT 22/21 A2975 RMK A01 T02230205  RH  090%=      5-min Rain = 0
KME1 290650Z 14004KT 22/21 A2975 RMK A01 T02240205  RH  089%=      5-min Rain = 0
KME1 290651Z 14005KT 23/20 A2975 RMK A01 T02250204  RH  088%=      5-min Rain = 0
KME1 290652Z 15004KT 22/20 A2975 RMK A01 T02240204  RH  088%=      5-min Rain = 0
KME1 290653Z 16004KT 22/20 A2975 RMK A01 T02240204  RH  089%=      5-min Rain = 0
KME1 290654Z 14003KT 22/20 A2975 RMK A01 T02230204  RH  089%=      5-min Rain = 0
KME1 290655Z 14004KT 22/21 A2975 RMK A01 T02230205  RH  090%=      5-min Rain = 0
KME1 290656Z 14005KT 22/21 A2974 RMK A01 T02230206  RH  090%=      5-min Rain = 0
KME1 290657Z 13004KT 22/21 A2974 RMK A01 T02230206  RH  090%=      5-min Rain = 0
KME1 290658Z 14004KT 22/21 A2974 RMK A01 T02230206  RH  090%=      5-min Rain = 0
KME1 290659Z 13005KT 22/21 A2974 RMK A01 T02230206  RH  090%=      5-min Rain = 0
KME1 290700Z 14005KT 22/21 A2974 RMK A01 T02230206  RH  090%=      5-min Rain = 0
KME1 290701Z 14005KT 22/21 A2974 RMK A01 T02230205  RH  090%=      5-min Rain = 0
KME1 290702Z 14005KT 22/21 A2974 RMK A01 T02220206  RH  091%=      5-min Rain = 0
KME1 290703Z 14005KT 22/21 A2974 RMK A01 T02220206  RH  091%=      5-min Rain = 0
KME1 290704Z 14004KT 22/21 A2974 RMK A01 T02220206  RH  091%=      5-min Rain = 0
KME1 290705Z 14005KT 22/21 A2974 RMK A01 T02220206  RH  091%=      5-min Rain = 0
KME1 290706Z 14005KT 22/21 A2974 RMK A01 T02210207  RH  091%=      5-min Rain = 0
KME1 290707Z 14005KT 22/21 A2974 RMK A01 T02210207  RH  092%=      5-min Rain = 0
KME1 290708Z 15005KT 22/21 A2974 RMK A01 T02200208  RH  093%=      5-min Rain = 0
KME1 290709Z 15007KT 22/21 A2974 RMK A01 T02210209  RH  093%=      5-min Rain = 0
KME1 290710Z 14006KT 22/21 A2974 RMK A01 T02210209  RH  093%=      5-min Rain = 0
KME1 290711Z 14006KT 22/21 A2974 RMK A01 T02230207  RH  091%=      5-min Rain = 0
KME1 290712Z 14005KT 22/21 A2974 RMK A01 T02230207  RH  091%=      5-min Rain = 0
KME1 290713Z 14006KT 22/21 A2974 RMK A01 T02230208  RH  091%=      5-min Rain = 0
KME1 290714Z 14006KT 22/21 A2973 RMK A01 T02230208  RH  091%=      5-min Rain = 0
KME1 290715Z 15005KT 22/21 A2973 RMK A01 T02220208  RH  092%=      5-min Rain = 0
KME1 290716Z 15006KT 22/21 A2974 RMK A01 T02220209  RH  092%=      5-min Rain = 0
KME1 290717Z 15005KT 22/21 A2974 RMK A01 T02220209  RH  092%=      5-min Rain = 0
KME1 290718Z 15006KT 22/21 A2974 RMK A01 T02220210  RH  093%=      5-min Rain = 0
KME1 290719Z 15007KT 22/21 A2974 RMK A01 T02220210  RH  093%=      5-min Rain = 0
KME1 290720Z 15007KT 22/21 A2974 RMK A01 T02230209  RH  092%=      5-min Rain = 0
KME1 290721Z 15005KT 22/21 A2974 RMK A01 T02230209  RH  092%=      5-min Rain = 0
KME1 290722Z 15005KT 22/21 A2974 RMK A01 T02230210  RH  092%=      5-min Rain = 0
KME1 290723Z 14005KT 22/21 A2974 RMK A01 T02230210  RH  092%=      5-min Rain = 0
KME1 290724Z 15005KT 22/21 A2974 RMK A01 T02230210  RH  092%=      5-min Rain = 0
KME1 290725Z 15004KT 22/21 A2974 RMK A01 T02230210  RH  093%=      5-min Rain = 0
KME1 290726Z 14005KT 22/21 A2974 RMK A01 T02230211  RH  093%=      5-min Rain = 0
KME1 290727Z 15005KT 22/21 A2974 RMK A01 T02230212  RH  093%=      5-min Rain = 0
KME1 290728Z 15005KT 22/21 A2974 RMK A01 T02230212  RH  093%=      5-min Rain = 0
KME1 290729Z 15006KT 22/21 A2974 RMK A01 T02230212  RH  093%=      5-min Rain = 0
KME1 290730Z 15006KT 22/21 A2974 RMK A01 T02230212  RH  094%=      5-min Rain = 0
KME1 290731Z 15005KT 22/21 A2974 RMK A01 T02230212  RH  093%=      5-min Rain = 0
KME1 290732Z 15005KT 22/21 A2974 RMK A01 T02230212  RH  093%=      5-min Rain = 0
KME1 290733Z 16005KT 22/21 A2974 RMK A01 T02240212  RH  093%=      5-min Rain = 0
KME1 290734Z 15005KT 22/21 A2974 RMK A01 T02230213  RH  094%=      5-min Rain = 0
KME1 290735Z 15005KT 22/21 A2974 RMK A01 T02230213  RH  094%=      5-min Rain = 0
KME1 290736Z 15005KT 22/21 A2974 RMK A01 T02230213  RH  094%=      5-min Rain = 0
KME1 290737Z 14005KT 22/21 A2974 RMK A01 T02230213  RH  094%=      5-min Rain = 0
KME1 290738Z 15004KT 22/21 A2974 RMK A01 T02230214  RH  094%=      5-min Rain = 0
KME1 290739Z 16004KT 22/21 A2974 RMK A01 T02240214  RH  094%=      5-min Rain = 0
KME1 290740Z 15003KT 22/22 A2974 RMK A01 T02240215  RH  094%=      5-min Rain = 0
KME1 290741Z 16004KT 22/22 A2974 RMK A01 T02240215  RH  095%=      5-min Rain = 0
KME1 290742Z 16004KT 22/22 A2974 RMK A01 T02240215  RH  095%=      5-min Rain = 0
KME1 290743Z 15004KT 22/22 A2974 RMK A01 T02240215  RH  094%=      5-min Rain = 0
KME1 290744Z 16004KT 23/22 A2974 RMK A01 T02250215  RH  094%=      5-min Rain = 0
KME1 290745Z 16004KT 23/22 A2974 RMK A01 T02260215  RH  094%=      5-min Rain = 0
KME1 290746Z 16003KT 23/22 A2974 RMK A01 T02260215  RH  093%=      5-min Rain = 0
KME1 290747Z 16004KT 23/22 A2974 RMK A01 T02260215  RH  094%=      5-min Rain = 0
KME1 290748Z 16002KT 23/22 A2974 RMK A01 T02270215  RH  093%=      5-min Rain = 0
KME1 290749Z 17002KT 23/22 A2974 RMK A01 T02270216  RH  094%=      5-min Rain = 0
KME1 290750Z 16002KT 23/22 A2974 RMK A01 T02270216  RH  094%=      5-min Rain = 0
KME1 290751Z 16003KT 23/22 A2974 RMK A01 T02260216  RH  094%=      5-min Rain = 0
KME1 290752Z 18002KT 23/22 A2974 RMK A01 T02270215  RH  093%=      5-min Rain = 0
KME1 290753Z 18002KT 23/22 A2974 RMK A01 T02270215  RH  092%=      5-min Rain = 0
KME1 290754Z 17003KT 23/22 A2974 RMK A01 T02270215  RH  093%=      5-min Rain = 0
KME1 290755Z 17002KT 23/22 A2974 RMK A01 T02280215  RH  093%=      5-min Rain = 0
KME1 290756Z 17002KT 23/21 A2974 RMK A01 T02280214  RH  092%=      5-min Rain = 0
KME1 290757Z 19001KT 23/22 A2974 RMK A01 T02280215  RH  092%=      5-min Rain = 0
KME1 290758Z 16002KT 23/22 A2974 RMK A01 T02290215  RH  092%=      5-min Rain = 0
KME1 290759Z 17002KT 23/22 A2974 RMK A01 T02280215  RH  092%=      5-min Rain = 0
KME1 290800Z 17002KT 23/22 A2974 RMK A01 T02280215  RH  092%=      5-min Rain = 0
KME1 290801Z 18002KT 23/22 A2974 RMK A01 T02280216  RH  093%=      5-min Rain = 0
KME1 290802Z 17002KT 23/22 A2974 RMK A01 T02280216  RH  093%=      5-min Rain = 0
KME1 290803Z 17003KT 23/22 A2974 RMK A01 T02280217  RH  093%=      5-min Rain = 0
KME1 290804Z 17004KT 23/22 A2974 RMK A01 T02290216  RH  093%=      5-min Rain = 0
KME1 290805Z 18004KT 23/22 A2974 RMK A01 T02280216  RH  093%=      5-min Rain = 0
KME1 290806Z 17004KT 23/22 A2974 RMK A01 T02280216  RH  093%=      5-min Rain = 0
KME1 290807Z 17003KT 23/22 A2974 RMK A01 T02290217  RH  093%=      5-min Rain = 0
KME1 290808Z 18002KT 23/22 A2974 RMK A01 T02280216  RH  093%=      5-min Rain = 0
KME1 290809Z 17003KT 23/22 A2974 RMK A01 T02290217  RH  093%=      5-min Rain = 0
KME1 290810Z 17002KT 23/22 A2974 RMK A01 T02290217  RH  093%=      5-min Rain = 0
KME1 290811Z 18002KT 23/22 A2974 RMK A01 T02290217  RH  093%=      5-min Rain = 0
KME1 290812Z 18002KT 23/22 A2974 RMK A01 T02290218  RH  093%=      5-min Rain = 0
KME1 290813Z 17002KT 23/22 A2974 RMK A01 T02290217  RH  093%=      5-min Rain = 0
KME1 290814Z 16002KT 23/22 A2974 RMK A01 T02290217  RH  093%=      5-min Rain = 0
KME1 290815Z 16002KT 23/22 A2974 RMK A01 T02290217  RH  093%=      5-min Rain = 0
KME1 290816Z 16002KT 23/22 A2974 RMK A01 T02290217  RH  093%=      5-min Rain = 0
KME1 290817Z 16002KT 23/22 A2974 RMK A01 T02290218  RH  093%=      5-min Rain = 0
KME1 290818Z 18003KT 23/22 A2974 RMK A01 T02290216  RH  093%=      5-min Rain = 0
KME1 290819Z 17004KT 23/22 A2974 RMK A01 T02290216  RH  092%=      5-min Rain = 0
KME1 290820Z 16004KT 23/22 A2974 RMK A01 T02290216  RH  092%=      5-min Rain = 0
KME1 290821Z 16004KT 23/22 A2974 RMK A01 T02290216  RH  092%=      5-min Rain = 0
KME1 290822Z 16004KT 23/22 A2974 RMK A01 T02300216  RH  092%=      5-min Rain = 0
KME1 290823Z 15004KT 23/22 A2974 RMK A01 T02300216  RH  092%=      5-min Rain = 0
KME1 290824Z 15003KT 23/22 A2974 RMK A01 T02300216  RH  092%=      5-min Rain = 0
KME1 290825Z 14003KT 23/22 A2973 RMK A01 T02300217  RH  092%=      5-min Rain = 0
KME1 290826Z 13002KT 23/22 A2973 RMK A01 T02300217  RH  092%=      5-min Rain = 0
KME1 290827Z 14004KT 23/22 A2973 RMK A01 T02300217  RH  092%=      5-min Rain = 0
KME1 290828Z 14003KT 23/22 A2973 RMK A01 T02300217  RH  092%=      5-min Rain = 0
KME1 290829Z 15003KT 23/22 A2973 RMK A01 T02300218  RH  093%=      5-min Rain = 0
KME1 290830Z 15003KT 23/22 A2973 RMK A01 T02300217  RH  092%=      5-min Rain = 0
KME1 290831Z 13003KT 23/22 A2973 RMK A01 T02310217  RH  092%=      5-min Rain = 0
KME1 290832Z 13003KT 23/22 A2973 RMK A01 T02300217  RH  092%=      5-min Rain = 0
KME1 290833Z 14003KT 23/22 A2973 RMK A01 T02300217  RH  092%=      5-min Rain = 0
KME1 290834Z 13003KT 23/22 A2973 RMK A01 T02300217  RH  093%=      5-min Rain = 0
KME1 290835Z 13003KT 23/22 A2973 RMK A01 T02300218  RH  093%=      5-min Rain = 0
KME1 290836Z 13003KT 23/22 A2973 RMK A01 T02300218  RH  093%=      5-min Rain = 0
KME1 290837Z 13003KT 23/22 A2973 RMK A01 T02300218  RH  093%=      5-min Rain = 0
KME1 290838Z 12003KT 23/22 A2973 RMK A01 T02300218  RH  093%=      5-min Rain = 0
KME1 290839Z 12003KT 23/22 A2973 RMK A01 T02300217  RH  092%=      5-min Rain = 0
KME1 290840Z 14004KT 23/22 A2973 RMK A01 T02310217  RH  092%=      5-min Rain = 0
KME1 290841Z 13004KT 23/22 A2973 RMK A01 T02310217  RH  092%=      5-min Rain = 0
KME1 290842Z 13004KT 23/22 A2973 RMK A01 T02310217  RH  091%=      5-min Rain = 0
KME1 290843Z 13003KT 23/22 A2973 RMK A01 T02310216  RH  091%=      5-min Rain = 0
KME1 290844Z 13004KT 23/22 A2973 RMK A01 T02320217  RH  091%=      5-min Rain = 0
KME1 290845Z 13004KT 23/22 A2973 RMK A01 T02320217  RH  091%=      5-min Rain = 0
KME1 290846Z 13004KT 23/22 A2973 RMK A01 T02310216  RH  091%=      5-min Rain = 0
KME1 290847Z 13005KT 23/22 A2973 RMK A01 T02320217  RH  091%=      5-min Rain = 0
KME1 290848Z 12004KT 23/22 A2973 RMK A01 T02320216  RH  091%=      5-min Rain = 0
KME1 290849Z 13004KT 23/22 A2973 RMK A01 T02320216  RH  090%=      5-min Rain = 0
KME1 290850Z 13005KT 23/22 A2974 RMK A01 T02330217  RH  091%=      5-min Rain = 0
KME1 290851Z 12004KT 23/22 A2974 RMK A01 T02320216  RH  090%=      5-min Rain = 0
KME1 290852Z 13004KT 23/22 A2973 RMK A01 T02330216  RH  090%=      5-min Rain = 0
KME1 290853Z 14004KT 23/22 A2973 RMK A01 T02330216  RH  090%=      5-min Rain = 0
KME1 290854Z 13003KT 23/22 A2973 RMK A01 T02330216  RH  090%=      5-min Rain = 0
KME1 290855Z 12003KT 23/22 A2973 RMK A01 T02330217  RH  091%=      5-min Rain = 0
KME1 290856Z 13003KT 23/22 A2973 RMK A01 T02330218  RH  091%=      5-min Rain = 0
KME1 290857Z 13003KT 23/22 A2973 RMK A01 T02330217  RH  091%=      5-min Rain = 0
KME1 290858Z 12003KT 23/22 A2974 RMK A01 T02330218  RH  091%=      5-min Rain = 0
KME1 290859Z 13004KT 23/22 A2974 RMK A01 T02330218  RH  091%=      5-min Rain = 0
KME1 290900Z 13003KT 23/22 A2974 RMK A01 T02330218  RH  091%=      5-min Rain = 0
KME1 290901Z 12003KT 23/22 A2973 RMK A01 T02330218  RH  091%=      5-min Rain = 0
KME1 290902Z 12003KT 23/22 A2973 RMK A01 T02330218  RH  091%=      5-min Rain = 0
KME1 290903Z 11003KT 23/22 A2973 RMK A01 T02330218  RH  091%=      5-min Rain = 0
KME1 290904Z 12003KT 23/22 A2973 RMK A01 T02330218  RH  092%=      5-min Rain = 0
KME1 290905Z 12003KT 23/22 A2973 RMK A01 T02330218  RH  092%=      5-min Rain = 0
KME1 290906Z 12004KT 23/22 A2973 RMK A01 T02320218  RH  091%=      5-min Rain = 0
KME1 290907Z 12004KT 23/22 A2973 RMK A01 T02320217  RH  091%=      5-min Rain = 0
KME1 290908Z 12003KT 23/22 A2973 RMK A01 T02320217  RH  091%=      5-min Rain = 0
KME1 290909Z 11004KT 23/22 A2973 RMK A01 T02330218  RH  091%=      5-min Rain = 0
KME1 290910Z 12003KT 23/22 A2973 RMK A01 T02320217  RH  091%=      5-min Rain = 0
KME1 290911Z 11003KT 23/22 A2973 RMK A01 T02330218  RH  091%=      5-min Rain = 0
KME1 290912Z 12003KT 23/22 A2973 RMK A01 T02320218  RH  091%=      5-min Rain = 0
KME1 290913Z 12004KT 23/22 A2973 RMK A01 T02330218  RH  091%=      5-min Rain = 0
KME1 290914Z 11004KT 23/22 A2973 RMK A01 T02330217  RH  091%=      5-min Rain = 0
KME1 290915Z 12004KT 23/22 A2973 RMK A01 T02330217  RH  090%=      5-min Rain = 0
KME1 290916Z 12004KT 23/22 A2973 RMK A01 T02340217  RH  090%=      5-min Rain = 0
KME1 290917Z 12004KT 23/22 A2973 RMK A01 T02340217  RH  090%=      5-min Rain = 0
KME1 290918Z 12003KT 23/22 A2973 RMK A01 T02340217  RH  090%=      5-min Rain = 0
KME1 290919Z 12003KT 23/22 A2973 RMK A01 T02340218  RH  090%=      5-min Rain = 0
KME1 290920Z 11003KT 23/22 A2973 RMK A01 T02340217  RH  090%=      5-min Rain = 0
KME1 290921Z 11005KT 23/22 A2973 RMK A01 T02340217  RH  090%=      5-min Rain = 0
KME1 290922Z 12006KT 23/22 A2973 RMK A01 T02340216  RH  090%=      5-min Rain = 0
KME1 290923Z 12005KT 24/22 A2973 RMK A01 T02350216  RH  089%=      5-min Rain = 0
KME1 290924Z 10004KT 24/22 A2973 RMK A01 T02350216  RH  089%=      5-min Rain = 0
KME1 290925Z 11005KT 24/22 A2973 RMK A01 T02350216  RH  089%=      5-min Rain = 0
KME1 290926Z 10004KT 24/22 A2973 RMK A01 T02360216  RH  089%=      5-min Rain = 0
KME1 290927Z 12003KT 24/22 A2973 RMK A01 T02360216  RH  089%=      5-min Rain = 0
KME1 290928Z 11003KT 24/22 A2973 RMK A01 T02360217  RH  089%=      5-min Rain = 0
KME1 290929Z 13004KT 24/22 A2973 RMK A01 T02360216  RH  089%=      5-min Rain = 0
KME1 290930Z 13004KT 24/22 A2973 RMK A01 T02360217  RH  089%=      5-min Rain = 0
KME1 290931Z 12003KT 24/22 A2973 RMK A01 T02360217  RH  089%=      5-min Rain = 0
KME1 290932Z 12003KT 24/22 A2973 RMK A01 T02360217  RH  089%=      5-min Rain = 0
KME1 290933Z 12003KT 24/22 A2973 RMK A01 T02360216  RH  089%=      5-min Rain = 0
KME1 290934Z 12003KT 24/22 A2973 RMK A01 T02360217  RH  089%=      5-min Rain = 0
KME1 290935Z 12005KT 24/22 A2973 RMK A01 T02360218  RH  090%=      5-min Rain = 0
KME1 290936Z 12006KT 24/22 A2973 RMK A01 T02360217  RH  089%=      5-min Rain = 0
KME1 290937Z 13005KT 24/22 A2973 RMK A01 T02350216  RH  089%=      5-min Rain = 0
KME1 290938Z 13005KT 24/22 A2973 RMK A01 T02360216  RH  089%=      5-min Rain = 0
KME1 290939Z 12004KT 24/22 A2973 RMK A01 T02360216  RH  088%=      5-min Rain = 0
KME1 290940Z 12004KT 24/22 A2973 RMK A01 T02360216  RH  089%=      5-min Rain = 0
KME1 290941Z 12003KT 24/22 A2973 RMK A01 T02360216  RH  089%=      5-min Rain = 0
KME1 290942Z 12003KT 24/22 A2973 RMK A01 T02360217  RH  089%=      5-min Rain = 0
KME1 290943Z 12003KT 24/22 A2973 RMK A01 T02360218  RH  089%=      5-min Rain = 0
KME1 290944Z 10004KT 24/22 A2973 RMK A01 T02360217  RH  089%=      5-min Rain = 0
KME1 290945Z 11004KT 24/22 A2973 RMK A01 T02360217  RH  089%=      5-min Rain = 0
KME1 290946Z 12003KT 24/22 A2973 RMK A01 T02350217  RH  089%=      5-min Rain = 0
KME1 290947Z 12004KT 24/22 A2973 RMK A01 T02350217  RH  089%=      5-min Rain = 0
KME1 290948Z 12005KT 24/22 A2973 RMK A01 T02350216  RH  089%=      5-min Rain = 0
KME1 290949Z 12006KT 24/22 A2973 RMK A01 T02350216  RH  089%=      5-min Rain = 0
KME1 290950Z 12006KT 24/22 A2973 RMK A01 T02360215  RH  088%=      5-min Rain = 0
KME1 290951Z 11004KT 24/22 A2973 RMK A01 T02360215  RH  088%=      5-min Rain = 0
KME1 290952Z 11004KT 24/22 A2973 RMK A01 T02360215  RH  088%=      5-min Rain = 0
KME1 290953Z 12004KT 24/22 A2973 RMK A01 T02360215  RH  088%=      5-min Rain = 0
KME1 290954Z 11004KT 24/22 A2973 RMK A01 T02360215  RH  088%=      5-min Rain = 0
KME1 290955Z 11005KT 24/22 A2973 RMK A01 T02360215  RH  088%=      5-min Rain = 0
KME1 290956Z 09004KT 24/22 A2973 RMK A01 T02360215  RH  088%=      5-min Rain = 0
KME1 290957Z 09004KT 24/22 A2973 RMK A01 T02360215  RH  088%=      5-min Rain = 0
KME1 290958Z 08005KT 23/21 A2973 RMK A01 T02340214  RH  089%=      5-min Rain = 0
KME1 290959Z 08004KT 23/22 A2973 RMK A01 T02330215  RH  090%=      5-min Rain = 0
KME1 291000Z 09005KT 23/22 A2973 RMK A01 T02310215  RH  091%=      5-min Rain = 0
KME1 291001Z 08004KT 23/22 A2973 RMK A01 T02300216  RH  092%=      5-min Rain = 0
KME1 291002Z 09006KT 23/22 A2973 RMK A01 T02290217  RH  093%=      5-min Rain = 0
KME1 291003Z 09005KT 23/22 A2973 RMK A01 T02280217  RH  093%=      5-min Rain = 0
KME1 291004Z 08004KT 23/22 A2973 RMK A01 T02280216  RH  093%=      5-min Rain = 0
KME1 291005Z 08005KT 23/22 A2973 RMK A01 T02280217  RH  094%=      5-min Rain = 0
KME1 291006Z 09005KT 23/22 A2973 RMK A01 T02270218  RH  094%=      5-min Rain = 0
KME1 291007Z 10004KT 23/22 A2973 RMK A01 T02270217  RH  094%=      5-min Rain = 0
KME1 291008Z 08002KT 23/22 A2973 RMK A01 T02270218  RH  094%=      5-min Rain = 0
KME1 291009Z 10003KT 23/22 A2973 RMK A01 T02270218  RH  095%=      5-min Rain = 0
KME1 291010Z 10003KT 23/22 A2973 RMK A01 T02270218  RH  095%=      5-min Rain = 0
KME1 291011Z 09003KT 23/22 A2973 RMK A01 T02270218  RH  095%=      5-min Rain = 0
KME1 291012Z 09003KT 23/22 A2973 RMK A01 T02270219  RH  095%=      5-min Rain = 0
KME1 291013Z 10003KT 23/22 A2973 RMK A01 T02260218  RH  095%=      5-min Rain = 0
KME1 291014Z 09004KT 23/22 A2973 RMK A01 T02260218  RH  095%=      5-min Rain = 0
KME1 291015Z 10004KT 23/22 A2973 RMK A01 T02270219  RH  095%=      5-min Rain = 0
KME1 291016Z 10005KT 23/22 A2973 RMK A01 T02260218  RH  095%=      5-min Rain = 0
KME1 291017Z 09005KT 23/22 A2973 RMK A01 T02270218  RH  095%=      5-min Rain = 0
KME1 291018Z 09004KT 23/22 A2973 RMK A01 T02270218  RH  095%=      5-min Rain = 0
KME1 291019Z 08004KT 23/22 A2973 RMK A01 T02270218  RH  095%=      5-min Rain = 0
KME1 291020Z 09003KT 23/22 A2973 RMK A01 T02270218  RH  095%=      5-min Rain = 0
KME1 291021Z 11003KT 23/22 A2973 RMK A01 T02260218  RH  095%=      5-min Rain = 0
KME1 291022Z 11003KT 23/22 A2973 RMK A01 T02270219  RH  095%=      5-min Rain = 0
KME1 291023Z 09002KT 23/22 A2973 RMK A01 T02270219  RH  095%=      5-min Rain = 0
KME1 291024Z 08002KT 23/22 A2973 RMK A01 T02270219  RH  096%=      5-min Rain = 0
KME1 291025Z 11002KT 23/22 A2973 RMK A01 T02260220  RH  096%=      5-min Rain = 0
KME1 291026Z 11001KT 23/22 A2973 RMK A01 T02260220  RH  096%=      5-min Rain = 0
KME1 291027Z 10002KT 23/22 A2973 RMK A01 T02260220  RH  096%=      5-min Rain = 0
KME1 291028Z 13002KT 23/22 A2973 RMK A01 T02260219  RH  096%=      5-min Rain = 0
KME1 291029Z 12002KT 23/22 A2973 RMK A01 T02260220  RH  096%=      5-min Rain = 0
KME1 291030Z 09002KT 23/22 A2973 RMK A01 T02260221  RH  097%=      5-min Rain = 0
KME1 291031Z 10003KT 23/22 A2973 RMK A01 T02260221  RH  097%=      5-min Rain = 0
KME1 291032Z 09003KT 23/22 A2973 RMK A01 T02250219  RH  096%=      5-min Rain = 0
KME1 291033Z 09003KT 23/22 A2973 RMK A01 T02260220  RH  097%=      5-min Rain = 0
KME1 291034Z 10003KT 23/22 A2973 RMK A01 T02260220  RH  096%=      5-min Rain = 0
KME1 291035Z 09003KT 23/22 A2973 RMK A01 T02250220  RH  097%=      5-min Rain = 0
KME1 291036Z 13002KT 23/22 A2973 RMK A01 T02260220  RH  096%=      5-min Rain = 0
KME1 291037Z 15003KT 23/22 A2973 RMK A01 T02260220  RH  097%=      5-min Rain = 0
KME1 291038Z 13005KT 23/22 A2973 RMK A01 T02260220  RH  096%=      5-min Rain = 0
KME1 291039Z 13005KT 23/22 A2973 RMK A01 T02260218  RH  095%=      5-min Rain = 0
KME1 291040Z 14005KT 23/22 A2973 RMK A01 T02270216  RH  094%=      5-min Rain = 0
KME1 291041Z 15006KT 23/22 A2973 RMK A01 T02270215  RH  093%=      5-min Rain = 0
KME1 291042Z 14005KT 23/21 A2973 RMK A01 T02280212  RH  091%=      5-min Rain = 0
KME1 291043Z 14004KT 23/21 A2973 RMK A01 T02290212  RH  090%=      5-min Rain = 0
KME1 291044Z 15008KT 23/21 A2973 RMK A01 T02300211  RH  089%=      5-min Rain = 0
KME1 291045Z 15010KT 23/21 A2973 RMK A01 T02310208  RH  087%=      5-min Rain = 0
KME1 291046Z 14009KT 23/21 A2973 RMK A01 T02330208  RH  086%=      5-min Rain = 0
KME1 291047Z 16008KT 23/21 A2973 RMK A01 T02330207  RH  085%=      5-min Rain = 0
KME1 291048Z 16008KT 23/21 A2973 RMK A01 T02330206  RH  085%=      5-min Rain = 0
KME1 291049Z 15008KT 23/21 A2973 RMK A01 T02340206  RH  084%=      5-min Rain = 0
KME1 291050Z 16006KT 23/21 A2973 RMK A01 T02340206  RH  084%=      5-min Rain = 0
KME1 291051Z 16006KT 23/21 A2973 RMK A01 T02340206  RH  084%=      5-min Rain = 0
KME1 291052Z 16007KT 23/21 A2973 RMK A01 T02340207  RH  084%=      5-min Rain = 0
KME1 291053Z 16011KT 23/21 A2973 RMK A01 T02340205  RH  084%=      5-min Rain = 0
KME1 291054Z 17010KT 23/20 A2973 RMK A01 T02340203  RH  083%=      5-min Rain = 0
KME1 291055Z 17011KT 23/20 A2973 RMK A01 T02340202  RH  082%=      5-min Rain = 0
KME1 291056Z 16011G16KT 23/20 A2973 RMK A01 T02340202  RH  082%=      5-min Rain = 0
KME1 291057Z 16009KT 23/20 A2973 RMK A01 T02340202  RH  082%=      5-min Rain = 0
KME1 291058Z 16010KT 23/20 A2973 RMK A01 T02340202  RH  082%=      5-min Rain = 0
KME1 291059Z 16008KT 23/20 A2973 RMK A01 T02340202  RH  082%=      5-min Rain = 0
KME1 291100Z 17009KT 23/20 A2973 RMK A01 T02340202  RH  083%=      5-min Rain = 0
KME1 291101Z 17010KT 23/20 A2973 RMK A01 T02330201  RH  082%=      5-min Rain = 0
KME1 291102Z 17008KT 23/20 A2973 RMK A01 T02330202  RH  083%=      5-min Rain = 0
KME1 291103Z 17011KT 23/20 A2973 RMK A01 T02330202  RH  083%=      5-min Rain = 0
KME1 291104Z 17008KT 23/20 A2973 RMK A01 T02330202  RH  083%=      5-min Rain = 0
KME1 291105Z 17007KT 23/20 A2973 RMK A01 T02320202  RH  083%=      5-min Rain = 0
KME1 291106Z 17009KT 23/20 A2973 RMK A01 T02320202  RH  083%=      5-min Rain = 0
KME1 291107Z 17009KT 23/20 A2973 RMK A01 T02320201  RH  083%=      5-min Rain = 0
KME1 291108Z 17008KT 23/20 A2973 RMK A01 T02310201  RH  083%=      5-min Rain = 0
KME1 291109Z 17007KT 23/20 A2973 RMK A01 T02320202  RH  083%=      5-min Rain = 0
KME1 291110Z 17007KT 23/20 A2973 RMK A01 T02310202  RH  083%=      5-min Rain = 0
KME1 291111Z 16006KT 23/20 A2973 RMK A01 T02310202  RH  084%=      5-min Rain = 0
KME1 291112Z 17007KT 23/20 A2973 RMK A01 T02310203  RH  084%=      5-min Rain = 0
KME1 291113Z 17007KT 23/20 A2973 RMK A01 T02300202  RH  084%=      5-min Rain = 0
KME1 291114Z 17009KT 23/20 A2973 RMK A01 T02300202  RH  084%=      5-min Rain = 0
KME1 291115Z 16008KT 23/20 A2973 RMK A01 T02300201  RH  084%=      5-min Rain = 0
KME1 291116Z 17008KT 23/20 A2973 RMK A01 T02300202  RH  084%=      5-min Rain = 0
KME1 291117Z 16009KT 23/20 A2973 RMK A01 T02300202  RH  084%=      5-min Rain = 0
KME1 291118Z 17008KT 23/20 A2973 RMK A01 T02300202  RH  084%=      5-min Rain = 0
KME1 291119Z 16006KT 23/20 A2973 RMK A01 T02300202  RH  084%=      5-min Rain = 0
KME1 291120Z 17009KT 23/20 A2973 RMK A01 T02300202  RH  084%=      5-min Rain = 0
KME1 291121Z 17008KT 23/20 A2973 RMK A01 T02300202  RH  084%=      5-min Rain = 0
KME1 291122Z 16004KT 23/20 A2973 RMK A01 T02300203  RH  085%=      5-min Rain = 0
KME1 291123Z 17008G13KT 23/20 A2973 RMK A01 T02300203  RH  085%=      5-min Rain = 0
KME1 291124Z 16007KT 23/20 A2973 RMK A01 T02290201  RH  084%=      5-min Rain = 0
KME1 291125Z 16008KT 23/20 A2973 RMK A01 T02300202  RH  085%=      5-min Rain = 0
KME1 291126Z 15007KT 23/20 A2973 RMK A01 T02290202  RH  085%=      5-min Rain = 0
KME1 291127Z 14007KT 23/20 A2973 RMK A01 T02290202  RH  085%=      5-min Rain = 0
KME1 291128Z 15011KT 23/20 A2973 RMK A01 T02290201  RH  084%=      5-min Rain = 0
KME1 291129Z 15009KT 23/20 A2973 RMK A01 T02300200  RH  083%=      5-min Rain = 0
KME1 291130Z 15008KT 23/20 A2973 RMK A01 T02300200  RH  083%=      5-min Rain = 0
KME1 291131Z 16009KT 23/20 A2973 RMK A01 T02310201  RH  083%=      5-min Rain = 0
KME1 291132Z 15009KT 23/20 A2973 RMK A01 T02310201  RH  083%=      5-min Rain = 0
KME1 291133Z 15010KT 23/20 A2973 RMK A01 T02310201  RH  083%=      5-min Rain = 0
KME1 291134Z 16006KT 23/20 A2973 RMK A01 T02310201  RH  083%=      5-min Rain = 0
KME1 291135Z 16007KT 23/20 A2973 RMK A01 T02310202  RH  084%=      5-min Rain = 0
KME1 291136Z 15009KT 23/20 A2973 RMK A01 T02300202  RH  084%=      5-min Rain = 0
KME1 291137Z 14012KT 23/20 A2973 RMK A01 T02300201  RH  084%=      5-min Rain = 0
KME1 291138Z 15010KT 23/20 A2973 RMK A01 T02300200  RH  083%=      5-min Rain = 0
KME1 291139Z 14009KT 23/20 A2973 RMK A01 T02300200  RH  084%=      5-min Rain = 0
KME1 291140Z 14010KT 23/20 A2973 RMK A01 T02300200  RH  084%=      5-min Rain = 0
KME1 291141Z 14010KT 23/20 A2973 RMK A01 T02300200  RH  083%=      5-min Rain = 0
KME1 291142Z 15009KT 23/20 A2973 RMK A01 T02300200  RH  083%=      5-min Rain = 0
KME1 291143Z 15009KT 23/20 A2973 RMK A01 T02300200  RH  083%=      5-min Rain = 0
KME1 291144Z 15007KT 23/20 A2973 RMK A01 T02300201  RH  084%=      5-min Rain = 0
KME1 291145Z 14007KT 23/20 A2973 RMK A01 T02300201  RH  084%=      5-min Rain = 0
KME1 291146Z 15008KT 23/20 A2973 RMK A01 T02290200  RH  084%=      5-min Rain = 0
KME1 291147Z 14009KT 23/20 A2973 RMK A01 T02290200  RH  084%=      5-min Rain = 0
KME1 291148Z 14007KT 23/20 A2973 RMK A01 T02290200  RH  084%=      5-min Rain = 0
KME1 291149Z 15008KT 23/20 A2973 RMK A01 T02290200  RH  084%=      5-min Rain = 0
KME1 291150Z 15010KT 23/20 A2973 RMK A01 T02290200  RH  084%=      5-min Rain = 0
KME1 291151Z 16007KT 23/20 A2974 RMK A01 T02290200  RH  084%=      5-min Rain = 0
KME1 291152Z 16008KT 23/20 A2974 RMK A01 T02280199  RH  084%=      5-min Rain = 0
KME1 291153Z 16007KT 23/20 A2974 RMK A01 T02280199  RH  084%=      5-min Rain = 0
KME1 291154Z 16005KT 23/20 A2974 RMK A01 T02280200  RH  084%=      5-min Rain = 0
KME1 291155Z 15010KT 23/20 A2974 RMK A01 T02290200  RH  084%=      5-min Rain = 0
KME1 291156Z 16008KT 23/20 A2974 RMK A01 T02280198  RH  083%=      5-min Rain = 0
KME1 291157Z 15005KT 23/20 A2974 RMK A01 T02280198  RH  083%=      5-min Rain = 0
KME1 291158Z 15005KT 23/20 A2974 RMK A01 T02280199  RH  083%=      5-min Rain = 0
KME1 291159Z 14007G12KT 23/20 A2974 RMK A01 T02290200  RH  084%=      5-min Rain = 0
KME1 291200Z 15007KT 23/20 A2974 RMK A01 T02280198  RH  083%=      5-min Rain = 0
KME1 291201Z 16007KT 23/20 A2974 RMK A01 T02280198  RH  083%=      5-min Rain = 0
KME1 291202Z 16008KT 23/20 A2974 RMK A01 T02280199  RH  083%=      5-min Rain = 0
KME1 291203Z 16008KT 23/20 A2974 RMK A01 T02280198  RH  083%=      5-min Rain = 0
KME1 291204Z 16008KT 23/20 A2974 RMK A01 T02280198  RH  083%=      5-min Rain = 0
KME1 291205Z 16008KT 23/20 A2974 RMK A01 T02280198  RH  083%=      5-min Rain = 0
KME1 291206Z 16009KT 23/20 A2974 RMK A01 T02290198  RH  083%=      5-min Rain = 0
KME1 291207Z 16009KT 23/20 A2974 RMK A01 T02280198  RH  083%=      5-min Rain = 0
KME1 291208Z 15008KT 23/20 A2974 RMK A01 T02280197  RH  083%=      5-min Rain = 0
KME1 291209Z 15007KT 23/20 A2974 RMK A01 T02280197  RH  083%=      5-min Rain = 0
KME1 291210Z 17005KT 23/20 A2974 RMK A01 T02280197  RH  083%=      5-min Rain = 0
KME1 291211Z 16008KT 23/20 A2974 RMK A01 T02280198  RH  083%=      5-min Rain = 0
KME1 291212Z 17009KT 23/20 A2974 RMK A01 T02280198  RH  083%=      5-min Rain = 0
KME1 291213Z 17009KT 23/20 A2974 RMK A01 T02280198  RH  083%=      5-min Rain = 0
KME1 291214Z 17011KT 23/20 A2974 RMK A01 T02280198  RH  083%=      5-min Rain = 0
KME1 291215Z 18007G12KT 23/20 A2975 RMK A01 T02280198  RH  083%=      5-min Rain = 0
KME1 291216Z 17007KT 23/20 A2975 RMK A01 T02270198  RH  083%=      5-min Rain = 0
KME1 291217Z 16009KT 23/20 A2975 RMK A01 T02270198  RH  083%=      5-min Rain = 0
KME1 291218Z 18007KT 23/20 A2975 RMK A01 T02270198  RH  084%=      5-min Rain = 0
KME1 291219Z 17009KT 23/20 A2975 RMK A01 T02270198  RH  084%=      5-min Rain = 0
KME1 291220Z 17009KT 23/20 A2975 RMK A01 T02270198  RH  084%=      5-min Rain = 0
KME1 291221Z 16009KT 23/20 A2975 RMK A01 T02270197  RH  083%=      5-min Rain = 0
KME1 291222Z 17010KT 23/20 A2975 RMK A01 T02270197  RH  083%=      5-min Rain = 0
KME1 291223Z 17007KT 23/20 A2975 RMK A01 T02270197  RH  083%=      5-min Rain = 0
KME1 291224Z 17005KT 23/20 A2975 RMK A01 T02270198  RH  084%=      5-min Rain = 0
KME1 291225Z 18005KT 23/20 A2975 RMK A01 T02270199  RH  084%=      5-min Rain = 0
KME1 291226Z 17007KT 23/20 A2975 RMK A01 T02270198  RH  084%=      5-min Rain = 0
KME1 291227Z 17006KT 23/20 A2975 RMK A01 T02270198  RH  084%=      5-min Rain = 0
KME1 291228Z 17005KT 23/20 A2975 RMK A01 T02270199  RH  084%=      5-min Rain = 0
KME1 291229Z 18008KT 23/20 A2975 RMK A01 T02260198  RH  084%=      5-min Rain = 0
KME1 291230Z 16007KT 23/20 A2975 RMK A01 T02260198  RH  084%=      5-min Rain = 0
KME1 291231Z 17009KT 23/20 A2975 RMK A01 T02260198  RH  084%=      5-min Rain = 0
KME1 291232Z 16009KT 23/20 A2975 RMK A01 T02260198  RH  084%=      5-min Rain = 0
KME1 291233Z 15007KT 23/20 A2975 RMK A01 T02260198  RH  084%=      5-min Rain = 0
KME1 291234Z 16006KT 23/20 A2975 RMK A01 T02260198  RH  084%=      5-min Rain = 0
KME1 291235Z 16005KT 23/20 A2975 RMK A01 T02260199  RH  084%=      5-min Rain = 0
KME1 291236Z 17005KT 23/20 A2975 RMK A01 T02260199  RH  085%=      5-min Rain = 0
KME1 291237Z 18005KT 23/20 A2975 RMK A01 T02260199  RH  085%=      5-min Rain = 0
KME1 291238Z 19005G10KT 23/20 A2975 RMK A01 T02250199  RH  085%=      5-min Rain = 0
KME1 291239Z 18009KT 23/20 A2975 RMK A01 T02250199  RH  085%=      5-min Rain = 0
KME1 291240Z 17006KT 23/20 A2975 RMK A01 T02250198  RH  084%=      5-min Rain = 0
KME1 291241Z 18005KT 23/20 A2975 RMK A01 T02250199  RH  085%=      5-min Rain = 0
KME1 291242Z 17004KT 23/20 A2975 RMK A01 T02250200  RH  086%=      5-min Rain = 0
KME1 291243Z 17004KT 23/20 A2975 RMK A01 T02250200  RH  086%=      5-min Rain = 0
KME1 291244Z 17005G10KT 23/20 A2975 RMK A01 T02250201  RH  086%=      5-min Rain = 0
KME1 291245Z 16005KT 22/20 A2975 RMK A01 T02240200  RH  086%=      5-min Rain = 0
KME1 291246Z 17007KT 22/20 A2975 RMK A01 T02240201  RH  087%=      5-min Rain = 0
KME1 291247Z 17006KT 22/20 A2975 RMK A01 T02240200  RH  086%=      5-min Rain = 0
KME1 291248Z 17006KT 22/20 A2975 RMK A01 T02240202  RH  087%=      5-min Rain = 0
KME1 291249Z 17005KT 22/20 A2975 RMK A01 T02240202  RH  087%=      5-min Rain = 0
KME1 291250Z 16005KT 22/20 A2975 RMK A01 T02230201  RH  087%=      5-min Rain = 0
KME1 291251Z 17006KT 22/20 A2975 RMK A01 T02230203  RH  088%=      5-min Rain = 0
KME1 291252Z 17007KT 22/20 A2975 RMK A01 T02230202  RH  088%=      5-min Rain = 0
KME1 291253Z 18006KT 22/20 A2975 RMK A01 T02230202  RH  088%=      5-min Rain = 0
KME1 291254Z 18004KT 22/20 A2975 RMK A01 T02220204  RH  089%=      5-min Rain = 0
KME1 291255Z 18008KT 22/21 A2975 RMK A01 T02220205  RH  090%=      5-min Rain = 0
KME1 291256Z 18006KT 22/20 A2975 RMK A01 T02210203  RH  090%=      5-min Rain = 0
KME1 291257Z 18007KT 22/20 A2975 RMK A01 T02210204  RH  090%=      5-min Rain = 0
KME1 291258Z 17005KT 22/21 A2975 RMK A01 T02210205  RH  091%=      5-min Rain = 0
KME1 291259Z 17004KT 22/21 A2975 RMK A01 T02200206  RH  091%=      5-min Rain = 0
KME1 291300Z 17005KT 22/21 A2975 RMK A01 T02200208  RH  093%=      5-min Rain = 0
KME1 291301Z 18007KT 22/21 A2975 RMK A01 T02190208  RH  093%=      5-min Rain = 0
KME1 291302Z 18005KT 22/21 A2975 RMK A01 T02190208  RH  093%=      5-min Rain = 0
KME1 291303Z 18004KT 22/21 A2975 RMK A01 T02190209  RH  095%=      5-min Rain = 0
KME1 291304Z 17004KT 22/21 A2975 RMK A01 T02180210  RH  095%=      5-min Rain = 0
KME1 291305Z 17004KT 22/21 A2975 RMK A01 T02180211  RH  096%=      5-min Rain = 0
KME1 291306Z 18004KT 22/21 A2975 RMK A01 T02180212  RH  097%=      5-min Rain = 0
KME1 291307Z 16003KT 22/21 A2975 RMK A01 T02170213  RH  097%=      5-min Rain = 0
KME1 291308Z 17003KT 22/21 A2975 RMK A01 T02170214  RH  098%=      5-min Rain = 0
KME1 291309Z 15002KT 22/21 A2975 RMK A01 T02170214  RH  098%=      5-min Rain = 0
KME1 291310Z 15003KT 22/22 A2975 RMK A01 T02170215  RH  099%=      5-min Rain = 0
KME1 291311Z 15003KT 22/22 A2975 RMK A01 T02170215  RH  099%=      5-min Rain = 0
KME1 291312Z 16003KT 22/21 A2975 RMK A01 T02170214  RH  098%=      5-min Rain = 0
KME1 291313Z 15004KT 22/21 A2975 RMK A01 T02160212  RH  097%=      5-min Rain = 0
KME1 291314Z 15003KT 22/21 A2975 RMK A01 T02160211  RH  097%=      5-min Rain = 0
KME1 291315Z 16003KT 22/21 A2975 RMK A01 T02160212  RH  098%=      5-min Rain = 0
KME1 291316Z 17002KT 22/21 A2975 RMK A01 T02160212  RH  098%=      5-min Rain = 0
KME1 291317Z 14002KT 22/21 A2976 RMK A01 T02160213  RH  098%=      5-min Rain = 0
KME1 291318Z 16002KT 22/22 A2976 RMK A01 T02160215  RH  100%=      5-min Rain = 0
KME1 291319Z 15002KT 22/22 A2976 RMK A01 T02160216  RH  100%=      5-min Rain = 0
KME1 291320Z 14002KT 22/22 A2976 RMK A01 T02160216  RH  100%=      5-min Rain = 0
KME1 291321Z 11002KT 22/22 A2976 RMK A01 T02160216  RH  100%=      5-min Rain = 0
KME1 291322Z 12001KT 22/22 A2976 RMK A01 T02160216  RH  100%=      5-min Rain = 0
KME1 291323Z 09001KT 22/22 A2976 RMK A01 T02150216  RH  100%=      5-min Rain = 0
KME1 291324Z 08001KT 22/22 A2976 RMK A01 T02150215  RH  100%=      5-min Rain = 0
KME1 291325Z 10001KT 22/22 A2976 RMK A01 T02150215  RH  100%=      5-min Rain = 0
KME1 291326Z 09001KT 22/22 A2976 RMK A01 T02150215  RH  100%=      5-min Rain = 0
KME1 291327Z 10001KT 22/22 A2976 RMK A01 T02150215  RH  100%=      5-min Rain = 0
KME1 291328Z 09002KT 22/22 A2976 RMK A01 T02150215  RH  100%=      5-min Rain = 0
KME1 291329Z 09001KT 22/22 A2976 RMK A01 T02150215  RH  100%=      5-min Rain = 0
KME1 291330Z 10001KT 22/22 A2976 RMK A01 T02150215  RH  100%=      5-min Rain = 0
KME1 291331Z 10001KT 21/21 A2976 RMK A01 T02140214  RH  100%=      5-min Rain = 0
KME1 291332Z 09001KT 21/21 A2976 RMK A01 T02140214  RH  100%=      5-min Rain = 0
KME1 291333Z 08001KT 21/21 A2976 RMK A01 T02140214  RH  100%=      5-min Rain = 0
KME1 291334Z 09001KT 21/21 A2976 RMK A01 T02140214  RH  100%=      5-min Rain = 0
KME1 291335Z 08001KT 21/21 A2976 RMK A01 T02140214  RH  100%=      5-min Rain = 0
KME1 291336Z 07002KT 21/21 A2976 RMK A01 T02140214  RH  100%=      5-min Rain = 0
KME1 291337Z 08002KT 21/21 A2976 RMK A01 T02140214  RH  100%=      5-min Rain = 0
KME1 291338Z 07002KT 21/21 A2977 RMK A01 T02140214  RH  100%=      5-min Rain = 0
KME1 291339Z 04001KT 21/21 A2977 RMK A01 T02140214  RH  100%=      5-min Rain = 0
KME1 291340Z 03001KT 21/21 A2977 RMK A01 T02140214  RH  100%=      5-min Rain = 0
KME1 291341Z 04001KT 21/21 A2977 RMK A01 T02140214  RH  100%=      5-min Rain = 0
KME1 291342Z 03001KT 21/21 A2977 RMK A01 T02140214  RH  100%=      5-min Rain = 0
KME1 291343Z 03001KT 21/21 A2977 RMK A01 T02140214  RH  100%=      5-min Rain = 0
KME1 291344Z 03001KT 21/21 A2977 RMK A01 T02140214  RH  100%=      5-min Rain = 0
KME1 291345Z 03001KT 21/21 A2977 RMK A01 T02140214  RH  100%=      5-min Rain = 0
KME1 291346Z 04002KT 21/21 A2977 RMK A01 T02140214  RH  100%=      5-min Rain = 0
KME1 291347Z 03001KT 21/21 A2977 RMK A01 T02140214  RH  100%=      5-min Rain = 0
KME1 291348Z 03001KT 21/21 A2977 RMK A01 T02140214  RH  100%=      5-min Rain = 0
KME1 291349Z 04002KT 21/21 A2977 RMK A01 T02140214  RH  100%=      5-min Rain = 0
KME1 291350Z 03001KT 21/21 A2977 RMK A01 T02140214  RH  100%=      5-min Rain = 0
KME1 291351Z 03002KT 21/21 A2978 RMK A01 T02140214  RH  100%=      5-min Rain = 0
KME1 291352Z 03002KT 21/21 A2978 RMK A01 T02140214  RH  100%=      5-min Rain = 0
KME1 291353Z 03002KT 21/22 A2978 RMK A01 T02140215  RH  100%=      5-min Rain = 0
KME1 291354Z 02003KT 21/21 A2978 RMK A01 T02140214  RH  100%=      5-min Rain = 0
KME1 291355Z 01002KT 21/21 A2978 RMK A01 T02140214  RH  100%=      5-min Rain = 0
KME1 291356Z 02003KT 21/21 A2978 RMK A01 T02140214  RH  100%=      5-min Rain = 0
KME1 291357Z 02002KT 21/21 A2978 RMK A01 T02140214  RH  100%=      5-min Rain = 0
KME1 291358Z 02003KT 21/21 A2979 RMK A01 T02140214  RH  100%=      5-min Rain = 0
KME1 291359Z 01003KT 21/21 A2979 RMK A01 T02140214  RH  100%=      5-min Rain = 0
KME1 291400Z 01003KT 21/21 A2979 RMK A01 T02130213  RH  100%=      5-min Rain = 0
KME1 291401Z 01003KT 21/21 A2979 RMK A01 T02130214  RH  100%=      5-min Rain = 0
KME1 291402Z 01003KT 21/21 A2979 RMK A01 T02130213  RH  100%=      5-min Rain = 0
KME1 291403Z 01003KT 21/21 A2979 RMK A01 T02130214  RH  100%=      5-min Rain = 0
KME1 291404Z 01003KT 21/21 A2979 RMK A01 T02130213  RH  100%=      5-min Rain = 0
KME1 291405Z 02004KT 21/21 A2979 RMK A01 T02130213  RH  100%=      5-min Rain = 0
KME1 291406Z 02003KT 21/21 A2979 RMK A01 T02120213  RH  100%=      5-min Rain = 0
KME1 291407Z 01003KT 21/21 A2979 RMK A01 T02120212  RH  100%=      5-min Rain = 0
KME1 291408Z 01003KT 21/21 A2979 RMK A01 T02130213  RH  100%=      5-min Rain = 0
KME1 291409Z 01003KT 21/21 A2979 RMK A01 T02120212  RH  100%=      5-min Rain = 0
KME1 291410Z 01003KT 21/21 A2979 RMK A01 T02120212  RH  100%=      5-min Rain = 0
KME1 291411Z 01003KT 21/21 A2979 RMK A01 T02130213  RH  100%=      5-min Rain = 0
KME1 291412Z 01004KT 21/21 A2979 RMK A01 T02130213  RH  100%=      5-min Rain = 0
KME1 291413Z 01003KT 21/21 A2979 RMK A01 T02120213  RH  100%=      5-min Rain = 0.01
KME1 291414Z 01003KT 21/21 A2979 RMK A01 T02120212  RH  100%=      5-min Rain = 0
KME1 291415Z 01003KT 21/21 A2979 RMK A01 T02120212  RH  100%=      5-min Rain = 0
KME1 291416Z 01003KT 21/21 A2979 RMK A01 T02120212  RH  100%=      5-min Rain = 0
KME1 291417Z 01003KT 21/21 A2979 RMK A01 T02120213  RH  100%=      5-min Rain = 0
KME1 291418Z 01003KT 21/21 A2979 RMK A01 T02120212  RH  100%=      5-min Rain = 0
KME1 291419Z 01003KT 21/21 A2979 RMK A01 T02120212  RH  100%=      5-min Rain = 0
KME1 291420Z 01003KT 21/21 A298 RMK A01 T02120212  RH  100%=      5-min Rain = 0
KME1 291421Z 01003KT 21/21 A298 RMK A01 T02120212  RH  100%=      5-min Rain = 0.01
KME1 291422Z 01004KT 21/21 A298 RMK A01 T02120212  RH  100%=      5-min Rain = 0
KME1 291423Z 01004KT 21/21 A298 RMK A01 T02120212  RH  100%=      5-min Rain = 0
KME1 291424Z 01004KT 21/21 A298 RMK A01 T02120212  RH  100%=      5-min Rain = 0
KME1 291425Z 01004KT 21/21 A298 RMK A01 T02110212  RH  100%=      5-min Rain = 0
KME1 291426Z 00004KT 21/21 A298 RMK A01 T02110211  RH  100%=      5-min Rain = 0
KME1 291427Z 00004KT 21/21 A298 RMK A01 T02110211  RH  100%=      5-min Rain = 0
KME1 291428Z 00003KT 21/21 A298 RMK A01 T02110211  RH  100%=      5-min Rain = 0
KME1 291429Z 01003KT 21/21 A298 RMK A01 T02110212  RH  100%=      5-min Rain = 0
KME1 291430Z 01003KT 21/21 A298 RMK A01 T02110211  RH  100%=      5-min Rain = 0.01
KME1 291431Z 02004KT 21/21 A298 RMK A01 T02110211  RH  100%=      5-min Rain = 0
KME1 291432Z 02004KT 21/21 A298 RMK A01 T02120212  RH  100%=      5-min Rain = 0
KME1 291433Z 01004KT 21/21 A298 RMK A01 T02120212  RH  100%=      5-min Rain = 0
KME1 291434Z 01004KT 21/21 A298 RMK A01 T02110211  RH  100%=      5-min Rain = 0
KME1 291435Z 00004KT 21/21 A298 RMK A01 T02110211  RH  100%=      5-min Rain = 0
KME1 291436Z 01004KT 21/21 A298 RMK A01 T02110211  RH  100%=      5-min Rain = 0
KME1 291437Z 00005KT 21/21 A298 RMK A01 T02110211  RH  100%=      5-min Rain = 0
KME1 291438Z 33006KT 21/21 A298 RMK A01 T02110211  RH  100%=      5-min Rain = 0
KME1 291439Z 36011KT 20/20 A298 RMK A01 T02040204  RH  100%=      5-min Rain = 0.01
KME1 291440Z 00012KT 20/19 A298 RMK A01 T01960193  RH  098%=      5-min Rain = 0
KME1 291441Z 00009KT 19/19 A2981 RMK A01 T01910189  RH  098%=      5-min Rain = 0
KME1 291442Z 35011KT 19/19 A2981 RMK A01 T01870187  RH  099%=      5-min Rain = 0
KME1 291443Z 35010KT 18/18 A2981 RMK A01 T01840183  RH  099%=      5-min Rain = 0.01
KME1 291444Z 35010KT 18/18 A2981 RMK A01 T01810182  RH  100%=      5-min Rain = 0
KME1 291445Z 35011KT 18/18 A2981 RMK A01 T01790179  RH  100%=      5-min Rain = 0
KME1 291446Z 35010KT 18/18 A2981 RMK A01 T01780178  RH  100%=      5-min Rain = 0.01
KME1 291447Z 00011KT 18/18 A2981 RMK A01 T01760176  RH  100%=      5-min Rain = 0
KME1 291448Z 00012KT 18/18 A2981 RMK A01 T01750175  RH  100%=      5-min Rain = 0
KME1 291449Z 00013KT 17/17 A2981 RMK A01 T01740174  RH  100%=      5-min Rain = 0
KME1 291450Z 35010KT 17/17 A2981 RMK A01 T01730173  RH  100%=      5-min Rain = 0.01
KME1 291451Z 36012KT 17/17 A2981 RMK A01 T01720173  RH  100%=      5-min Rain = 0
KME1 291452Z 36009KT 17/17 A2981 RMK A01 T01720172  RH  100%=      5-min Rain = 0
KME1 291453Z 00010KT 17/17 A2981 RMK A01 T01720172  RH  100%=      5-min Rain = 0.01
KME1 291454Z 00011KT 17/17 A2981 RMK A01 T01710171  RH  100%=      5-min Rain = 0
KME1 291455Z 00013KT 17/17 A2981 RMK A01 T01700171  RH  100%=      5-min Rain = 0
KME1 291456Z 01009KT 17/17 A2981 RMK A01 T01700170  RH  100%=      5-min Rain = 0
KME1 291457Z 01008KT 17/17 A2981 RMK A01 T01700170  RH  100%=      5-min Rain = 0.01
KME1 291458Z 02011KT 17/17 A2981 RMK A01 T01690169  RH  100%=      5-min Rain = 0
KME1 291459Z 00010KT 17/17 A2981 RMK A01 T01690169  RH  100%=      5-min Rain = 0.01
KME1 291500Z 01007KT 17/17 A2981 RMK A01 T01690169  RH  100%=      5-min Rain = 0
KME1 291501Z 01007KT 17/17 A2981 RMK A01 T01690169  RH  100%=      5-min Rain = 0
KME1 291502Z 01010KT 17/17 A2981 RMK A01 T01690169  RH  100%=      5-min Rain = 0.01
KME1 291503Z 00008KT 17/17 A2981 RMK A01 T01690169  RH  100%=      5-min Rain = 0
KME1 291504Z 01007KT 17/17 A2981 RMK A01 T01680168  RH  100%=      5-min Rain = 0
KME1 291505Z 00007KT 17/17 A2981 RMK A01 T01680168  RH  100%=      5-min Rain = 0
KME1 291506Z 36009KT 17/17 A2981 RMK A01 T01680168  RH  100%=      5-min Rain = 0.01
KME1 291507Z 00011KT 17/17 A2982 RMK A01 T01680168  RH  100%=      5-min Rain = 0
KME1 291508Z 36010KT 17/17 A2982 RMK A01 T01670167  RH  100%=      5-min Rain = 0
KME1 291509Z 35009KT 17/17 A2982 RMK A01 T01660167  RH  100%=      5-min Rain = 0
KME1 291510Z 00009KT 17/17 A2982 RMK A01 T01660167  RH  100%=      5-min Rain = 0.01
KME1 291511Z 36008KT 17/17 A2982 RMK A01 T01660166  RH  100%=      5-min Rain = 0
KME1 291512Z 00008KT 17/17 A2982 RMK A01 T01660166  RH  100%=      5-min Rain = 0
KME1 291513Z 36007KT 17/17 A2982 RMK A01 T01660166  RH  100%=      5-min Rain = 0.01
KME1 291514Z 35005KT 17/17 A2982 RMK A01 T01660166  RH  100%=      5-min Rain = 0
KME1 291515Z 34006KT 17/17 A2982 RMK A01 T01660166  RH  100%=      5-min Rain = 0
KME1 291516Z 34006KT 17/17 A2982 RMK A01 T01660167  RH  100%=      5-min Rain = 0.01
KME1 291517Z 32004KT 17/17 A2982 RMK A01 T01660166  RH  100%=      5-min Rain = 0
KME1 291518Z 31006KT 17/17 A2982 RMK A01 T01660167  RH  100%=      5-min Rain = 0
KME1 291519Z 32007KT 17/17 A2982 RMK A01 T01660167  RH  100%=      5-min Rain = 0
KME1 291520Z 33007KT 17/17 A2982 RMK A01 T01660166  RH  100%=      5-min Rain = 0.01
KME1 291521Z 34006KT 17/17 A2982 RMK A01 T01660166  RH  100%=      5-min Rain = 0
KME1 291522Z 35007KT 17/17 A2982 RMK A01 T01660166  RH  100%=      5-min Rain = 0
KME1 291523Z 35007KT 17/17 A2982 RMK A01 T01660166  RH  100%=      5-min Rain = 0
KME1 291524Z 35007KT 17/17 A2982 RMK A01 T01660166  RH  100%=      5-min Rain = 0
KME1 291525Z 35007KT 17/17 A2982 RMK A01 T01660166  RH  100%=      5-min Rain = 0.01
KME1 291526Z 34005KT 17/17 A2982 RMK A01 T01660166  RH  100%=      5-min Rain = 0
KME1 291527Z 34004KT 17/17 A2982 RMK A01 T01660166  RH  100%=      5-min Rain = 0
KME1 291528Z 34005KT 17/17 A2982 RMK A01 T01670167  RH  100%=      5-min Rain = 0
KME1 291529Z 35007KT 17/17 A2982 RMK A01 T01670167  RH  100%=      5-min Rain = 0.01
KME1 291530Z 35007KT 17/17 A2982 RMK A01 T01670168  RH  100%=      5-min Rain = 0
KME1 291531Z 34005KT 17/17 A2982 RMK A01 T01680168  RH  100%=      5-min Rain = 0.01
KME1 291532Z 35004KT 17/17 A2982 RMK A01 T01680168  RH  100%=      5-min Rain = 0.01
KME1 291533Z 34006KT 17/17 A2982 RMK A01 T01670168  RH  100%=      5-min Rain = 0
KME1 291534Z 34005KT 17/17 A2983 RMK A01 T01680168  RH  100%=      5-min Rain = 0
KME1 291535Z 34005KT 17/17 A2983 RMK A01 T01680168  RH  100%=      5-min Rain = 0
KME1 291536Z 35004KT 17/17 A2983 RMK A01 T01680168  RH  100%=      5-min Rain = 0.01
KME1 291537Z 34005KT 17/17 A2982 RMK A01 T01680168  RH  100%=      5-min Rain = 0
KME1 291538Z 35004KT 17/17 A2982 RMK A01 T01680168  RH  100%=      5-min Rain = 0
KME1 291539Z 35006KT 17/17 A2982 RMK A01 T01690169  RH  100%=      5-min Rain = 0.01
KME1 291540Z 01006KT 17/17 A2982 RMK A01 T01690169  RH  100%=      5-min Rain = 0
KME1 291541Z 00006KT 17/17 A2982 RMK A01 T01690169  RH  100%=      5-min Rain = 0
KME1 291542Z 01006KT 17/17 A2982 RMK A01 T01690169  RH  100%=      5-min Rain = 0
KME1 291543Z 01007KT 17/17 A2982 RMK A01 T01690169  RH  100%=      5-min Rain = 0
KME1 291544Z 00006KT 17/17 A2982 RMK A01 T01690169  RH  100%=      5-min Rain = 0
KME1 291545Z 36008KT 17/17 A2982 RMK A01 T01690169  RH  100%=      5-min Rain = 0
KME1 291546Z 35006KT 17/17 A2982 RMK A01 T01690169  RH  100%=      5-min Rain = 0.01
KME1 291547Z 34005KT 17/17 A2983 RMK A01 T01690169  RH  100%=      5-min Rain = 0
KME1 291548Z 35007KT 17/17 A2983 RMK A01 T01700170  RH  100%=      5-min Rain = 0
KME1 291549Z 35006KT 17/17 A2983 RMK A01 T01700170  RH  100%=      5-min Rain = 0
KME1 291550Z 35006KT 17/17 A2983 RMK A01 T01700170  RH  100%=      5-min Rain = 0
KME1 291551Z 00006KT 17/17 A2983 RMK A01 T01690170  RH  100%=      5-min Rain = 0
KME1 291552Z 00004KT 17/17 A2983 RMK A01 T01700170  RH  100%=      5-min Rain = 0
KME1 291553Z 36005KT 17/17 A2983 RMK A01 T01700170  RH  100%=      5-min Rain = 0
KME1 291554Z 34004KT 17/17 A2983 RMK A01 T01700170  RH  100%=      5-min Rain = 0
KME1 291555Z 00004KT 17/17 A2983 RMK A01 T01700170  RH  100%=      5-min Rain = 0
KME1 291556Z 00008KT 17/17 A2983 RMK A01 T01710171  RH  100%=      5-min Rain = 0
KME1 291557Z 01009KT 17/17 A2983 RMK A01 T01710171  RH  100%=      5-min Rain = 0
KME1 291558Z 35007KT 17/17 A2983 RMK A01 T01710171  RH  100%=      5-min Rain = 0
KME1 291559Z 00007KT 17/17 A2983 RMK A01 T01700170  RH  100%=      5-min Rain = 0
KME1 291600Z 35007KT 17/17 A2983 RMK A01 T01710171  RH  100%=      5-min Rain = 0
KME1 291601Z 36010KT 17/17 A2983 RMK A01 T01700171  RH  100%=      5-min Rain = 0
KME1 291602Z 36009KT 17/17 A2983 RMK A01 T01700171  RH  100%=      5-min Rain = 0
KME1 291603Z 36008KT 17/17 A2983 RMK A01 T01700170  RH  100%=      5-min Rain = 0
KME1 291604Z 36007KT 17/17 A2983 RMK A01 T01700170  RH  100%=      5-min Rain = 0
KME1 291605Z 36008KT 17/17 A2983 RMK A01 T01700171  RH  100%=      5-min Rain = 0
KME1 291606Z 01007KT 17/17 A2983 RMK A01 T01710171  RH  100%=      5-min Rain = 0
KME1 291607Z 01008KT 17/17 A2983 RMK A01 T01710171  RH  100%=      5-min Rain = 0
KME1 291608Z 01007KT 17/17 A2983 RMK A01 T01710171  RH  100%=      5-min Rain = 0
KME1 291609Z 00007KT 17/17 A2983 RMK A01 T01710171  RH  100%=      5-min Rain = 0
KME1 291610Z 00008KT 17/17 A2983 RMK A01 T01710171  RH  100%=      5-min Rain = 0
KME1 291611Z 01006KT 17/17 A2983 RMK A01 T01710171  RH  100%=      5-min Rain = 0
KME1 291612Z 01005KT 17/17 A2983 RMK A01 T01710171  RH  100%=      5-min Rain = 0
KME1 291613Z 01007KT 17/17 A2983 RMK A01 T01720172  RH  100%=      5-min Rain = 0
KME1 291614Z 00006KT 17/17 A2983 RMK A01 T01720172  RH  100%=      5-min Rain = 0
KME1 291615Z 01008KT 17/17 A2984 RMK A01 T01720172  RH  100%=      5-min Rain = 0
KME1 291616Z 00008KT 17/17 A2984 RMK A01 T01720172  RH  100%=      5-min Rain = 0
KME1 291617Z 36007KT 17/17 A2984 RMK A01 T01710172  RH  100%=      5-min Rain = 0
KME1 291618Z 36006KT 17/17 A2984 RMK A01 T01720172  RH  100%=      5-min Rain = 0
KME1 291619Z 35008KT 17/17 A2984 RMK A01 T01720172  RH  100%=      5-min Rain = 0
KME1 291620Z 00007KT 17/17 A2984 RMK A01 T01730173  RH  100%=      5-min Rain = 0
KME1 291621Z 01006KT 17/17 A2984 RMK A01 T01720172  RH  100%=      5-min Rain = 0
KME1 291622Z 01007KT 17/17 A2984 RMK A01 T01720172  RH  100%=      5-min Rain = 0
KME1 291623Z 02006KT 17/17 A2984 RMK A01 T01720172  RH  100%=      5-min Rain = 0
KME1 291624Z 02007KT 17/17 A2984 RMK A01 T01720172  RH  100%=      5-min Rain = 0
KME1 291625Z 04008KT 17/17 A2984 RMK A01 T01730173  RH  100%=      5-min Rain = 0
KME1 291626Z 03010KT 17/17 A2984 RMK A01 T01730173  RH  100%=      5-min Rain = 0.01
KME1 291627Z 02009KT 17/17 A2984 RMK A01 T01720172  RH  100%=      5-min Rain = 0
KME1 291628Z 02012KT 17/17 A2984 RMK A01 T01720172  RH  100%=      5-min Rain = 0
KME1 291629Z 01011KT 17/17 A2984 RMK A01 T01720172  RH  100%=      5-min Rain = 0
KME1 291630Z 01009KT 17/17 A2984 RMK A01 T01710172  RH  100%=      5-min Rain = 0
KME1 291631Z 01009KT 17/17 A2984 RMK A01 T01710171  RH  100%=      5-min Rain = 0
KME1 291632Z 01010KT 17/17 A2984 RMK A01 T01710172  RH  100%=      5-min Rain = 0
KME1 291633Z 00010KT 17/17 A2984 RMK A01 T01710171  RH  100%=      5-min Rain = 0
KME1 291634Z 00011KT 17/17 A2984 RMK A01 T01710171  RH  100%=      5-min Rain = 0
KME1 291635Z 00007KT 17/17 A2984 RMK A01 T01710171  RH  100%=      5-min Rain = 0
KME1 291636Z 00009KT 17/17 A2985 RMK A01 T01710171  RH  100%=      5-min Rain = 0
KME1 291637Z 00009KT 17/17 A2985 RMK A01 T01710171  RH  100%=      5-min Rain = 0
KME1 291638Z 00009KT 17/17 A2985 RMK A01 T01710171  RH  100%=      5-min Rain = 0
KME1 291639Z 01007KT 17/17 A2985 RMK A01 T01710171  RH  100%=      5-min Rain = 0
KME1 291640Z 01006KT 17/17 A2985 RMK A01 T01710171  RH  100%=      5-min Rain = 0
KME1 291641Z 01006KT 17/17 A2985 RMK A01 T01720172  RH  100%=      5-min Rain = 0
KME1 291642Z 02007KT 17/17 A2985 RMK A01 T01720172  RH  100%=      5-min Rain = 0
KME1 291643Z 01008KT 17/17 A2985 RMK A01 T01720172  RH  100%=      5-min Rain = 0
KME1 291644Z 01007KT 17/17 A2985 RMK A01 T01720172  RH  100%=      5-min Rain = 0
KME1 291645Z 02007KT 17/17 A2985 RMK A01 T01720172  RH  100%=      5-min Rain = 0
KME1 291646Z 02007KT 17/17 A2985 RMK A01 T01730173  RH  100%=      5-min Rain = 0
KME1 291647Z 02006KT 17/17 A2985 RMK A01 T01720173  RH  100%=      5-min Rain = 0
KME1 291648Z 03006KT 17/17 A2985 RMK A01 T01720172  RH  100%=      5-min Rain = 0
KME1 291649Z 01004KT 17/17 A2985 RMK A01 T01720172  RH  100%=      5-min Rain = 0
KME1 291650Z 02004KT 17/17 A2985 RMK A01 T01730173  RH  100%=      5-min Rain = 0
KME1 291651Z 02005KT 17/17 A2985 RMK A01 T01730173  RH  100%=      5-min Rain = 0
KME1 291652Z 03005KT 17/17 A2985 RMK A01 T01730173  RH  100%=      5-min Rain = 0
KME1 291653Z 03005KT 17/17 A2985 RMK A01 T01730173  RH  100%=      5-min Rain = 0
KME1 291654Z 03004KT 17/17 A2985 RMK A01 T01730173  RH  100%=      5-min Rain = 0
KME1 291655Z 04005KT 17/17 A2985 RMK A01 T01740174  RH  100%=      5-min Rain = 0
KME1 291656Z 03005KT 17/17 A2985 RMK A01 T01740174  RH  100%=      5-min Rain = 0
KME1 291657Z 04008KT 17/17 A2985 RMK A01 T01740174  RH  100%=      5-min Rain = 0
KME1 291658Z 04008KT 17/17 A2985 RMK A01 T01740174  RH  100%=      5-min Rain = 0
KME1 291659Z 03008KT 17/17 A2985 RMK A01 T01740174  RH  100%=      5-min Rain = 0
KME1 291700Z 04007KT 17/18 A2985 RMK A01 T01740175  RH  100%=      5-min Rain = 0
KME1 291701Z 04007KT 18/18 A2985 RMK A01 T01750175  RH  100%=      5-min Rain = 0
KME1 291702Z 05008KT 18/18 A2985 RMK A01 T01760176  RH  100%=      5-min Rain = 0
KME1 291703Z 04007KT 18/18 A2985 RMK A01 T01760176  RH  100%=      5-min Rain = 0
KME1 291704Z 04007KT 18/18 A2985 RMK A01 T01770177  RH  100%=      5-min Rain = 0
KME1 291705Z 04007KT 18/18 A2985 RMK A01 T01790179  RH  100%=      5-min Rain = 0
KME1 291706Z 05008KT 18/18 A2985 RMK A01 T01800180  RH  100%=      5-min Rain = 0
KME1 291707Z 05008KT 18/18 A2985 RMK A01 T01810181  RH  100%=      5-min Rain = 0
KME1 291708Z 04011KT 18/18 A2985 RMK A01 T01810181  RH  100%=      5-min Rain = 0
KME1 291709Z 05010KT 18/18 A2985 RMK A01 T01810181  RH  100%=      5-min Rain = 0
KME1 291710Z 04010KT 18/18 A2985 RMK A01 T01810180  RH  099%=      5-min Rain = 0
KME1 291711Z 05007KT 18/18 A2984 RMK A01 T01810180  RH  099%=      5-min Rain = 0
KME1 291712Z 06009KT 18/18 A2984 RMK A01 T01820182  RH  100%=      5-min Rain = 0
KME1 291713Z 04008KT 18/18 A2984 RMK A01 T01820181  RH  099%=      5-min Rain = 0
KME1 291714Z 04007KT 18/18 A2984 RMK A01 T01820181  RH  099%=      5-min Rain = 0
KME1 291715Z 04007KT 18/18 A2984 RMK A01 T01830182  RH  100%=      5-min Rain = 0
KME1 291716Z 05006KT 19/19 A2984 RMK A01 T01850185  RH  100%=      5-min Rain = 0
KME1 291717Z 06005KT 19/19 A2984 RMK A01 T01870187  RH  100%=      5-min Rain = 0
KME1 291718Z 06007KT 19/19 A2984 RMK A01 T01890189  RH  100%=      5-min Rain = 0
KME1 291719Z 06006KT 19/19 A2984 RMK A01 T01890190  RH  100%=      5-min Rain = 0
KME1 291720Z 05006KT 19/19 A2984 RMK A01 T01900190  RH  100%=      5-min Rain = 0
KME1 291721Z 06007KT 19/19 A2984 RMK A01 T01910191  RH  100%=      5-min Rain = 0
KME1 291722Z 06006KT 19/19 A2984 RMK A01 T01910191  RH  100%=      5-min Rain = 0
KME1 291723Z 06008KT 19/19 A2984 RMK A01 T01920186  RH  096%=      5-min Rain = 0
KME1 291724Z 05006KT 19/19 A2984 RMK A01 T01900186  RH  098%=      5-min Rain = 0
KME1 291725Z 06010KT 19/18 A2984 RMK A01 T01900184  RH  096%=      5-min Rain = 0
KME1 291726Z 06010KT 19/18 A2984 RMK A01 T01900182  RH  095%=      5-min Rain = 0
KME1 291727Z 06008KT 19/19 A2983 RMK A01 T01900187  RH  098%=      5-min Rain = 0
KME1 291728Z 06011KT 19/19 A2984 RMK A01 T01910188  RH  098%=      5-min Rain = 0
KME1 291729Z 06011KT 19/18 A2983 RMK A01 T01910183  RH  095%=      5-min Rain = 0
KME1 291730Z 06011KT 19/18 A2984 RMK A01 T01900181  RH  094%=      5-min Rain = 0
KME1 291731Z 06007KT 19/19 A2984 RMK A01 T01900185  RH  097%=      5-min Rain = 0
KME1 291732Z 06008KT 19/19 A2984 RMK A01 T01910189  RH  099%=      5-min Rain = 0
KME1 291733Z 06010KT 19/19 A2984 RMK A01 T01920185  RH  096%=      5-min Rain = 0
KME1 291734Z 06009KT 19/18 A2984 RMK A01 T01920183  RH  095%=      5-min Rain = 0
KME1 291735Z 06012KT 19/18 A2984 RMK A01 T01910180  RH  093%=      5-min Rain = 0
KME1 291736Z 06008KT 19/18 A2984 RMK A01 T01900182  RH  095%=      5-min Rain = 0
KME1 291737Z 05008KT 19/18 A2984 RMK A01 T01910184  RH  096%=      5-min Rain = 0
KME1 291738Z 05007KT 19/19 A2984 RMK A01 T01920185  RH  096%=      5-min Rain = 0
KME1 291739Z 06007KT 19/19 A2984 RMK A01 T01930188  RH  097%=      5-min Rain = 0
KME1 291740Z 06009KT 19/19 A2984 RMK A01 T01940188  RH  096%=      5-min Rain = 0
KME1 291741Z 06010KT 19/18 A2984 RMK A01 T01940181  RH  092%=      5-min Rain = 0
KME1 291742Z 06011KT 19/18 A2984 RMK A01 T01930179  RH  092%=      5-min Rain = 0
KME1 291743Z 05010KT 19/18 A2984 RMK A01 T01920178  RH  091%=      5-min Rain = 0
KME1 291744Z 05007KT 19/18 A2983 RMK A01 T01920181  RH  093%=      5-min Rain = 0
KME1 291745Z 05007KT 19/18 A2983 RMK A01 T01920183  RH  095%=      5-min Rain = 0
KME1 291746Z 04006KT 19/18 A2983 RMK A01 T01940183  RH  094%=      5-min Rain = 0
KME1 291747Z 05005KT 20/19 A2983 RMK A01 T01950189  RH  096%=      5-min Rain = 0
KME1 291748Z 06006KT 20/19 A2983 RMK A01 T01970186  RH  094%=      5-min Rain = 0
KME1 291749Z 05008KT 20/19 A2983 RMK A01 T01970191  RH  096%=      5-min Rain = 0
KME1 291750Z 05008KT 20/19 A2983 RMK A01 T01990188  RH  094%=      5-min Rain = 0
KME1 291751Z 06008G13KT 20/19 A2983 RMK A01 T02010190  RH  093%=      5-min Rain = 0
KME1 291752Z 07008G13KT 20/19 A2983 RMK A01 T02020188  RH  092%=      5-min Rain = 0
KME1 291753Z 07010KT 20/18 A2983 RMK A01 T02030182  RH  088%=      5-min Rain = 0
KME1 291754Z 05009KT 20/18 A2983 RMK A01 T02030183  RH  088%=      5-min Rain = 0
KME1 291755Z 06009KT 20/19 A2983 RMK A01 T02030188  RH  091%=      5-min Rain = 0
KME1 291756Z 06008KT 20/18 A2983 RMK A01 T02040184  RH  088%=      5-min Rain = 0
KME1 291757Z 06010KT 20/18 A2983 RMK A01 T02040183  RH  088%=      5-min Rain = 0
KME1 291758Z 07009KT 20/18 A2983 RMK A01 T02040184  RH  088%=      5-min Rain = 0
KME1 291759Z 06008KT 20/18 A2983 RMK A01 T02040178  RH  085%=      5-min Rain = 0
KME1 291800Z 06009KT 20/18 A2983 RMK A01 T02020180  RH  087%=      5-min Rain = 0
KME1 291801Z 06009KT 20/18 A2983 RMK A01 T02020183  RH  089%=      5-min Rain = 0
KME1 291802Z 06008KT 20/19 A2983 RMK A01 T02040185  RH  089%=      5-min Rain = 0
KME1 291803Z 06008KT 21/19 A2983 RMK A01 T02050187  RH  089%=      5-min Rain = 0
KME1 291804Z 06008KT 21/19 A2983 RMK A01 T02070187  RH  088%=      5-min Rain = 0
KME1 291805Z 04008KT 21/19 A2983 RMK A01 T02080189  RH  089%=      5-min Rain = 0
KME1 291806Z 06006KT 21/19 A2983 RMK A01 T02090190  RH  089%=      5-min Rain = 0
KME1 291807Z 06007KT 21/19 A2983 RMK A01 T02100187  RH  087%=      5-min Rain = 0
KME1 291808Z 06006KT 21/19 A2983 RMK A01 T02100189  RH  088%=      5-min Rain = 0
KME1 291809Z 08010KT 21/19 A2983 RMK A01 T02100185  RH  086%=      5-min Rain = 0
KME1 291810Z 06009KT 21/18 A2983 RMK A01 T02090182  RH  085%=      5-min Rain = 0
KME1 291811Z 04008KT 21/19 A2983 RMK A01 T02080185  RH  087%=      5-min Rain = 0
KME1 291812Z 04008KT 21/19 A2983 RMK A01 T02090187  RH  087%=      5-min Rain = 0
KME1 291813Z 06006KT 21/18 A2983 RMK A01 T02100184  RH  085%=      5-min Rain = 0
KME1 291814Z 06007KT 21/19 A2983 RMK A01 T02110187  RH  086%=      5-min Rain = 0
KME1 291815Z 05006KT 21/19 A2983 RMK A01 T02120189  RH  086%=      5-min Rain = 0
KME1 291816Z 04008KT 21/19 A2983 RMK A01 T02130186  RH  085%=      5-min Rain = 0
KME1 291817Z 04009KT 21/18 A2983 RMK A01 T02130184  RH  083%=      5-min Rain = 0
KME1 291818Z 05008KT 21/18 A2983 RMK A01 T02130184  RH  083%=      5-min Rain = 0
KME1 291819Z 03007KT 21/19 A2983 RMK A01 T02120185  RH  085%=      5-min Rain = 0
KME1 291820Z 04008KT 21/19 A2983 RMK A01 T02130188  RH  086%=      5-min Rain = 0
KME1 291821Z 06007KT 21/19 A2983 RMK A01 T02140189  RH  086%=      5-min Rain = 0
KME1 291822Z 06008KT 21/19 A2983 RMK A01 T02140185  RH  083%=      5-min Rain = 0
KME1 291823Z 06008KT 21/19 A2983 RMK A01 T02130192  RH  087%=      5-min Rain = 0
KME1 291824Z 08007KT 21/19 A2983 RMK A01 T02140185  RH  084%=      5-min Rain = 0
KME1 291825Z 07006KT 21/19 A2983 RMK A01 T02130185  RH  084%=      5-min Rain = 0
KME1 291826Z 06007KT 21/19 A2983 RMK A01 T02130187  RH  085%=      5-min Rain = 0
KME1 291827Z 06009KT 21/18 A2983 RMK A01 T02140184  RH  083%=      5-min Rain = 0
KME1 291828Z 06008KT 21/18 A2983 RMK A01 T02140181  RH  081%=      5-min Rain = 0
KME1 291829Z 05008KT 21/18 A2983 RMK A01 T02130181  RH  082%=      5-min Rain = 0
KME1 291830Z 06009KT 21/18 A2983 RMK A01 T02130181  RH  082%=      5-min Rain = 0
KME1 291831Z 07007KT 21/18 A2983 RMK A01 T02120179  RH  082%=      5-min Rain = 0
KME1 291832Z 07008KT 21/18 A2983 RMK A01 T02110180  RH  082%=      5-min Rain = 0
KME1 291833Z 07008KT 21/18 A2983 RMK A01 T02110180  RH  083%=      5-min Rain = 0
KME1 291834Z 08008KT 21/18 A2983 RMK A01 T02110181  RH  083%=      5-min Rain = 0
KME1 291835Z 06008KT 21/19 A2983 RMK A01 T02110189  RH  087%=      5-min Rain = 0
KME1 291836Z 05009KT 21/19 A2983 RMK A01 T02140187  RH  085%=      5-min Rain = 0
KME1 291837Z 06009KT 21/18 A2983 RMK A01 T02140182  RH  082%=      5-min Rain = 0
KME1 291838Z 05007KT 21/18 A2983 RMK A01 T02140181  RH  082%=      5-min Rain = 0
KME1 291839Z 04008KT 21/19 A2983 RMK A01 T02140187  RH  084%=      5-min Rain = 0
KME1 291840Z 06008KT 22/19 A2983 RMK A01 T02150185  RH  083%=      5-min Rain = 0
KME1 291841Z 07005KT 22/19 A2983 RMK A01 T02150186  RH  083%=      5-min Rain = 0
KME1 291842Z 07009KT 22/19 A2983 RMK A01 T02160186  RH  083%=      5-min Rain = 0
KME1 291843Z 06009KT 22/19 A2983 RMK A01 T02160185  RH  083%=      5-min Rain = 0
KME1 291844Z 07008KT 22/18 A2983 RMK A01 T02150183  RH  082%=      5-min Rain = 0
KME1 291845Z 07008KT 21/18 A2983 RMK A01 T02140181  RH  082%=      5-min Rain = 0
KME1 291846Z 07007KT 21/18 A2983 RMK A01 T02130181  RH  082%=      5-min Rain = 0
KME1 291847Z 08009KT 21/18 A2983 RMK A01 T02120183  RH  083%=      5-min Rain = 0
KME1 291848Z 08009KT 21/18 A2983 RMK A01 T02120179  RH  081%=      5-min Rain = 0
KME1 291849Z 07007KT 21/18 A2983 RMK A01 T02110181  RH  083%=      5-min Rain = 0
KME1 291850Z 05008KT 21/19 A2983 RMK A01 T02120186  RH  086%=      5-min Rain = 0
KME1 291851Z 06009KT 21/19 A2983 RMK A01 T02130185  RH  084%=      5-min Rain = 0
KME1 291852Z 06008KT 21/18 A2983 RMK A01 T02140184  RH  083%=      5-min Rain = 0
KME1 291853Z 07009KT 21/18 A2983 RMK A01 T02140183  RH  082%=      5-min Rain = 0
KME1 291854Z 06008KT 21/19 A2983 RMK A01 T02140186  RH  084%=      5-min Rain = 0
KME1 291855Z 06007KT 22/19 A2983 RMK A01 T02150187  RH  084%=      5-min Rain = 0
KME1 291856Z 07009KT 22/18 A2983 RMK A01 T02150182  RH  082%=      5-min Rain = 0
KME1 291857Z 07009KT 21/18 A2983 RMK A01 T02140181  RH  082%=      5-min Rain = 0
KME1 291858Z 07009KT 21/19 A2983 RMK A01 T02130185  RH  084%=      5-min Rain = 0
KME1 291859Z 06010KT 21/18 A2983 RMK A01 T02130181  RH  082%=      5-min Rain = 0
KME1 291900Z 06009KT 21/18 A2983 RMK A01 T02130179  RH  081%=      5-min Rain = 0
KME1 291901Z 05009KT 21/18 A2983 RMK A01 T02130176  RH  079%=      5-min Rain = 0
KME1 291902Z 04009KT 21/18 A2982 RMK A01 T02130181  RH  082%=      5-min Rain = 0
KME1 291903Z 04009KT 21/18 A2982 RMK A01 T02130182  RH  082%=      5-min Rain = 0
KME1 291904Z 05006KT 21/19 A2982 RMK A01 T02140185  RH  083%=      5-min Rain = 0
KME1 291905Z 06007KT 22/19 A2982 RMK A01 T02160189  RH  085%=      5-min Rain = 0
KME1 291906Z 07010KT 22/18 A2982 RMK A01 T02180182  RH  080%=      5-min Rain = 0
KME1 291907Z 07010KT 22/18 A2982 RMK A01 T02170181  RH  080%=      5-min Rain = 0
KME1 291908Z 08009KT 22/18 A2982 RMK A01 T02160182  RH  081%=      5-min Rain = 0
KME1 291909Z 07011KT 22/18 A2982 RMK A01 T02160183  RH  082%=      5-min Rain = 0
KME1 291910Z 07010KT 22/18 A2982 RMK A01 T02160180  RH  080%=      5-min Rain = 0
KME1 291911Z 07010KT 22/18 A2982 RMK A01 T02160180  RH  080%=      5-min Rain = 0
KME1 291912Z 06008KT 21/18 A2982 RMK A01 T02140179  RH  080%=      5-min Rain = 0
KME1 291913Z 07008KT 21/18 A2982 RMK A01 T02130183  RH  083%=      5-min Rain = 0
KME1 291914Z 08008KT 22/19 A2981 RMK A01 T02150185  RH  083%=      5-min Rain = 0
KME1 291915Z 07007KT 22/19 A2981 RMK A01 T02170186  RH  082%=      5-min Rain = 0
KME1 291916Z 07009KT 22/19 A2981 RMK A01 T02190186  RH  082%=      5-min Rain = 0
KME1 291917Z 08010KT 22/18 A2981 RMK A01 T02180182  RH  080%=      5-min Rain = 0
KME1 291918Z 08011KT 22/18 A2981 RMK A01 T02160179  RH  079%=      5-min Rain = 0
KME1 291919Z 07008KT 21/18 A2981 RMK A01 T02130177  RH  080%=      5-min Rain = 0
KME1 291920Z 06007KT 21/18 A2981 RMK A01 T02110180  RH  082%=      5-min Rain = 0
KME1 291921Z 09008KT 21/18 A2981 RMK A01 T02120182  RH  083%=      5-min Rain = 0
KME1 291922Z 07008KT 21/18 A2981 RMK A01 T02130184  RH  084%=      5-min Rain = 0
KME1 291923Z 07009KT 21/18 A2981 RMK A01 T02140184  RH  083%=      5-min Rain = 0
KME1 291924Z 07009KT 21/18 A2981 RMK A01 T02140178  RH  080%=      5-min Rain = 0
KME1 291925Z 06008KT 21/18 A2981 RMK A01 T02120179  RH  082%=      5-min Rain = 0
KME1 291926Z 06010KT 21/18 A2981 RMK A01 T02110181  RH  083%=      5-min Rain = 0
KME1 291927Z 06009KT 21/18 A2981 RMK A01 T02100179  RH  083%=      5-min Rain = 0
KME1 291928Z 07008KT 21/18 A2982 RMK A01 T02090180  RH  083%=      5-min Rain = 0
KME1 291929Z 07006KT 21/18 A2982 RMK A01 T02080181  RH  084%=      5-min Rain = 0
KME1 291930Z 05008KT 21/18 A2982 RMK A01 T02080182  RH  085%=      5-min Rain = 0
KME1 291931Z 05007KT 21/18 A2982 RMK A01 T02080183  RH  086%=      5-min Rain = 0
KME1 291932Z 06008KT 21/18 A2982 RMK A01 T02080180  RH  084%=      5-min Rain = 0
KME1 291933Z 06007KT 21/18 A2982 RMK A01 T02070181  RH  085%=      5-min Rain = 0
KME1 291934Z 08008KT 21/18 A2981 RMK A01 T02070181  RH  085%=      5-min Rain = 0
KME1 291935Z 07008KT 21/18 A2981 RMK A01 T02060176  RH  083%=      5-min Rain = 0
KME1 291936Z 06008KT 21/18 A2981 RMK A01 T02060178  RH  084%=      5-min Rain = 0
KME1 291937Z 05008KT 21/18 A2981 RMK A01 T02050180  RH  085%=      5-min Rain = 0
KME1 291938Z 07007KT 21/18 A2981 RMK A01 T02050180  RH  085%=      5-min Rain = 0
KME1 291939Z 07008KT 21/18 A2981 RMK A01 T02050179  RH  085%=      5-min Rain = 0
KME1 291940Z 08007KT 20/18 A2982 RMK A01 T02040180  RH  086%=      5-min Rain = 0
KME1 291941Z 08007KT 20/18 A2982 RMK A01 T02040180  RH  086%=      5-min Rain = 0
KME1 291942Z 09006KT 20/18 A2982 RMK A01 T02040183  RH  088%=      5-min Rain = 0
KME1 291943Z 07006KT 20/18 A2982 RMK A01 T02040183  RH  088%=      5-min Rain = 0
KME1 291944Z 06008KT 20/18 A2982 RMK A01 T02040183  RH  088%=      5-min Rain = 0
KME1 291945Z 06006KT 20/18 A2982 RMK A01 T02030182  RH  088%=      5-min Rain = 0
KME1 291946Z 06006KT 20/18 A2981 RMK A01 T02030184  RH  089%=      5-min Rain = 0
KME1 291947Z 05008KT 20/18 A2981 RMK A01 T02030184  RH  089%=      5-min Rain = 0
KME1 291948Z 06007KT 20/18 A2981 RMK A01 T02030182  RH  088%=      5-min Rain = 0
KME1 291949Z 07006KT 20/18 A2981 RMK A01 T02030184  RH  089%=      5-min Rain = 0
KME1 291950Z 06005KT 20/18 A2981 RMK A01 T02030184  RH  089%=      5-min Rain = 0
KME1 291951Z 06006KT 20/19 A2981 RMK A01 T02030186  RH  090%=      5-min Rain = 0
KME1 291952Z 07007KT 20/19 A2981 RMK A01 T02030185  RH  089%=      5-min Rain = 0
KME1 291953Z 07009KT 20/18 A2981 RMK A01 T02030184  RH  089%=      5-min Rain = 0
KME1 291954Z 06008KT 20/18 A2981 RMK A01 T02030183  RH  088%=      5-min Rain = 0
KME1 291955Z 07007KT 20/18 A2981 RMK A01 T02020182  RH  088%=      5-min Rain = 0
KME1 291956Z 07008KT 20/18 A2981 RMK A01 T02030183  RH  089%=      5-min Rain = 0
KME1 291957Z 08007KT 20/18 A2981 RMK A01 T02020182  RH  088%=      5-min Rain = 0
KME1 291958Z 06007KT 20/18 A2981 RMK A01 T02020183  RH  089%=      5-min Rain = 0
KME1 291959Z 05007KT 20/18 A2981 RMK A01 T02020184  RH  089%=      5-min Rain = 0
KME1 292000Z 06008KT 20/18 A2981 RMK A01 T02020184  RH  089%=      5-min Rain = 0
KME1 292001Z 06007KT 20/18 A298 RMK A01 T02020182  RH  088%=      5-min Rain = 0
KME1 292002Z 06007KT 20/18 A298 RMK A01 T02020183  RH  089%=      5-min Rain = 0
KME1 292003Z 06009KT 20/18 A298 RMK A01 T02020181  RH  088%=      5-min Rain = 0
KME1 292004Z 07008KT 20/18 A2981 RMK A01 T02010182  RH  088%=      5-min Rain = 0
KME1 292005Z 07008KT 20/18 A2981 RMK A01 T02010179  RH  087%=      5-min Rain = 0
KME1 292006Z 07007KT 20/18 A2981 RMK A01 T02010180  RH  088%=      5-min Rain = 0
KME1 292007Z 07006KT 20/18 A2981 RMK A01 T02000181  RH  089%=      5-min Rain = 0
KME1 292008Z 07006KT 20/18 A2981 RMK A01 T02010184  RH  090%=      5-min Rain = 0
KME1 292009Z 07008KT 20/18 A2981 RMK A01 T02010181  RH  088%=      5-min Rain = 0
KME1 292010Z 07006KT 20/18 A2981 RMK A01 T02010180  RH  088%=      5-min Rain = 0
KME1 292011Z 06007KT 20/18 A2981 RMK A01 T02010181  RH  088%=      5-min Rain = 0
KME1 292012Z 08006KT 20/18 A2981 RMK A01 T02010181  RH  088%=      5-min Rain = 0
KME1 292013Z 07006KT 20/18 A2982 RMK A01 T02010180  RH  088%=      5-min Rain = 0
KME1 292014Z 09006KT 20/18 A2982 RMK A01 T02010179  RH  087%=      5-min Rain = 0
KME1 292015Z 07005KT 20/18 A2983 RMK A01 T02010180  RH  088%=      5-min Rain = 0
KME1 292016Z 07006KT 20/18 A2983 RMK A01 T02010179  RH  087%=      5-min Rain = 0
KME1 292017Z 07006KT 20/18 A2982 RMK A01 T02010178  RH  087%=      5-min Rain = 0
KME1 292018Z 06005KT 20/18 A2982 RMK A01 T02010181  RH  088%=      5-min Rain = 0
KME1 292019Z 06005KT 20/18 A2981 RMK A01 T02010183  RH  089%=      5-min Rain = 0
KME1 292020Z 08006KT 20/18 A2981 RMK A01 T02010182  RH  089%=      5-min Rain = 0
KME1 292021Z 07009KT 20/18 A2981 RMK A01 T02010179  RH  087%=      5-min Rain = 0
KME1 292022Z 07007KT 20/18 A2981 RMK A01 T02010177  RH  086%=      5-min Rain = 0
KME1 292023Z 07006KT 20/18 A2982 RMK A01 T02010178  RH  087%=      5-min Rain = 0
KME1 292024Z 08004KT 20/18 A2982 RMK A01 T02010179  RH  087%=      5-min Rain = 0
KME1 292025Z 08004KT 20/18 A2982 RMK A01 T02010178  RH  087%=      5-min Rain = 0
KME1 292026Z 07005KT 20/18 A2982 RMK A01 T02010180  RH  087%=      5-min Rain = 0
KME1 292027Z 07006KT 20/18 A2982 RMK A01 T02020181  RH  088%=      5-min Rain = 0
KME1 292028Z 08006KT 20/18 A2982 RMK A01 T02020180  RH  087%=      5-min Rain = 0
KME1 292029Z 06007KT 20/18 A2982 RMK A01 T02030181  RH  087%=      5-min Rain = 0
KME1 292030Z 06006KT 20/18 A2982 RMK A01 T02040180  RH  086%=      5-min Rain = 0
KME1 292031Z 07005KT 20/18 A2982 RMK A01 T02040180  RH  086%=      5-min Rain = 0
KME1 292032Z 06006KT 21/18 A2982 RMK A01 T02060182  RH  086%=      5-min Rain = 0
KME1 292033Z 06006KT 21/18 A2982 RMK A01 T02060180  RH  085%=      5-min Rain = 0
KME1 292034Z 05007KT 21/18 A2982 RMK A01 T02060181  RH  085%=      5-min Rain = 0
KME1 292035Z 06006KT 21/18 A2982 RMK A01 T02060180  RH  085%=      5-min Rain = 0
KME1 292036Z 06006KT 21/18 A2982 RMK A01 T02060179  RH  084%=      5-min Rain = 0
KME1 292037Z 07005KT 21/18 A2982 RMK A01 T02060182  RH  086%=      5-min Rain = 0
KME1 292038Z 08005KT 21/18 A2982 RMK A01 T02070182  RH  086%=      5-min Rain = 0
KME1 292039Z 06005KT 21/19 A2982 RMK A01 T02070185  RH  087%=      5-min Rain = 0
KME1 292040Z 06006KT 21/18 A2982 RMK A01 T02080182  RH  085%=      5-min Rain = 0
KME1 292041Z 06006KT 21/18 A2982 RMK A01 T02080180  RH  084%=      5-min Rain = 0
KME1 292042Z 05005KT 21/18 A2982 RMK A01 T02070181  RH  085%=      5-min Rain = 0
KME1 292043Z 05005KT 21/18 A2982 RMK A01 T02070184  RH  086%=      5-min Rain = 0
KME1 292044Z 05006KT 21/18 A2982 RMK A01 T02070177  RH  082%=      5-min Rain = 0
KME1 292045Z 06005KT 21/18 A2982 RMK A01 T02080179  RH  084%=      5-min Rain = 0
KME1 292046Z 04005KT 21/18 A2982 RMK A01 T02090181  RH  084%=      5-min Rain = 0
KME1 292047Z 05008KT 21/18 A2982 RMK A01 T02090179  RH  082%=      5-min Rain = 0
KME1 292048Z 06006KT 21/18 A2982 RMK A01 T02100177  RH  082%=      5-min Rain = 0
KME1 292049Z 06005KT 21/18 A2982 RMK A01 T02100177  RH  082%=      5-min Rain = 0
KME1 292050Z 07004KT 21/18 A2982 RMK A01 T02110175  RH  080%=      5-min Rain = 0
KME1 292051Z 06006KT 21/18 A2982 RMK A01 T02120180  RH  082%=      5-min Rain = 0
KME1 292052Z 07008KT 21/18 A2982 RMK A01 T02140176  RH  079%=      5-min Rain = 0
KME1 292053Z 07007KT 21/18 A2982 RMK A01 T02140176  RH  079%=      5-min Rain = 0
KME1 292054Z 08007KT 22/18 A2982 RMK A01 T02150179  RH  080%=      5-min Rain = 0
KME1 292055Z 06006KT 22/18 A2982 RMK A01 T02160178  RH  079%=      5-min Rain = 0
KME1 292056Z 04007KT 22/18 A2982 RMK A01 T02170182  RH  081%=      5-min Rain = 0
KME1 292057Z 04007KT 22/19 A2982 RMK A01 T02190185  RH  081%=      5-min Rain = 0
KME1 292058Z 06005KT 22/18 A2982 RMK A01 T02200181  RH  079%=      5-min Rain = 0
KME1 292059Z 08006KT 22/18 A2982 RMK A01 T02200184  RH  080%=      5-min Rain = 0
KME1 292100Z 09006KT 22/18 A2982 RMK A01 T02210181  RH  078%=      5-min Rain = 0
KME1 292101Z 09007KT 22/18 A2982 RMK A01 T02210180  RH  078%=      5-min Rain = 0
KME1 292102Z 07005KT 22/18 A2982 RMK A01 T02210182  RH  079%=      5-min Rain = 0
KME1 292103Z 07007KT 22/18 A2982 RMK A01 T02220183  RH  078%=      5-min Rain = 0
KME1 292104Z 08007KT 22/18 A2982 RMK A01 T02230184  RH  078%=      5-min Rain = 0
KME1 292105Z 08006KT 22/18 A2982 RMK A01 T02230180  RH  076%=      5-min Rain = 0
KME1 292106Z 07007KT 22/18 A2982 RMK A01 T02230179  RH  076%=      5-min Rain = 0
KME1 292107Z 06008KT 22/18 A2982 RMK A01 T02220177  RH  076%=      5-min Rain = 0
KME1 292108Z 06007KT 22/18 A2982 RMK A01 T02210179  RH  077%=      5-min Rain = 0
KME1 292109Z 07007KT 22/18 A2982 RMK A01 T02220181  RH  078%=      5-min Rain = 0
KME1 292110Z 08005KT 22/18 A2982 RMK A01 T02240180  RH  076%=      5-min Rain = 0
KME1 292111Z 06004KT 23/18 A2981 RMK A01 T02250184  RH  077%=      5-min Rain = 0
KME1 292112Z 04006KT 23/18 A2981 RMK A01 T02270182  RH  076%=      5-min Rain = 0
KME1 292113Z 05006KT 23/19 A2981 RMK A01 T02290185  RH  077%=      5-min Rain = 0
KME1 292114Z 06008KT 23/18 A2981 RMK A01 T02300183  RH  075%=      5-min Rain = 0
KME1 292115Z 07007KT 23/18 A2981 RMK A01 T02310183  RH  074%=      5-min Rain = 0
KME1 292116Z 08005KT 23/18 A2981 RMK A01 T02300178  RH  072%=      5-min Rain = 0
KME1 292117Z 07007KT 23/18 A2981 RMK A01 T02290180  RH  074%=      5-min Rain = 0
KME1 292118Z 05006KT 23/18 A2981 RMK A01 T02280182  RH  075%=      5-min Rain = 0
KME1 292119Z 06007KT 23/19 A2981 RMK A01 T02300187  RH  076%=      5-min Rain = 0
KME1 292120Z 05006KT 23/18 A2981 RMK A01 T02310183  RH  074%=      5-min Rain = 0
KME1 292121Z 04005KT 23/19 A2981 RMK A01 T02320188  RH  076%=      5-min Rain = 0
KME1 292122Z 06006KT 23/19 A2981 RMK A01 T02340191  RH  077%=      5-min Rain = 0
KME1 292123Z 08006KT 24/19 A2981 RMK A01 T02350186  RH  074%=      5-min Rain = 0
KME1 292124Z 08008KT 23/18 A2981 RMK A01 T02340183  RH  073%=      5-min Rain = 0
KME1 292125Z 07007KT 23/18 A2981 RMK A01 T02320182  RH  074%=      5-min Rain = 0
KME1 292126Z 09006KT 23/19 A2981 RMK A01 T02320187  RH  076%=      5-min Rain = 0
KME1 292127Z 07007KT 23/19 A2981 RMK A01 T02340186  RH  075%=      5-min Rain = 0
KME1 292128Z 07007KT 23/18 A2981 RMK A01 T02340182  RH  072%=      5-min Rain = 0
KME1 292129Z 09007KT 23/18 A2981 RMK A01 T02340183  RH  073%=      5-min Rain = 0
KME1 292130Z 09005KT 23/18 A2981 RMK A01 T02320180  RH  072%=      5-min Rain = 0
KME1 292131Z 07005KT 23/18 A2981 RMK A01 T02300175  RH  071%=      5-min Rain = 0
KME1 292132Z 05005KT 23/18 A2981 RMK A01 T02280178  RH  073%=      5-min Rain = 0
KME1 292133Z 07009KT 23/18 A2981 RMK A01 T02290180  RH  074%=      5-min Rain = 0
KME1 292134Z 05008KT 23/18 A2981 RMK A01 T02290180  RH  074%=      5-min Rain = 0
KME1 292135Z 04007KT 23/19 A2981 RMK A01 T02300185  RH  076%=      5-min Rain = 0
KME1 292136Z 04006KT 23/19 A2981 RMK A01 T02320185  RH  075%=      5-min Rain = 0
KME1 292137Z 07008KT 23/18 A2981 RMK A01 T02330181  RH  073%=      5-min Rain = 0
KME1 292138Z 07009KT 23/18 A298 RMK A01 T02330180  RH  072%=      5-min Rain = 0
KME1 292139Z 06009KT 23/18 A298 RMK A01 T02310178  RH  072%=      5-min Rain = 0
KME1 292140Z 05006KT 23/18 A298 RMK A01 T02290177  RH  073%=      5-min Rain = 0
KME1 292141Z 05007KT 23/18 A298 RMK A01 T02290182  RH  075%=      5-min Rain = 0
KME1 292142Z 05007KT 23/19 A298 RMK A01 T02300186  RH  076%=      5-min Rain = 0
KME1 292143Z 06007KT 23/19 A298 RMK A01 T02320185  RH  075%=      5-min Rain = 0
KME1 292144Z 04004KT 23/19 A298 RMK A01 T02330188  RH  076%=      5-min Rain = 0
KME1 292145Z 06007KT 23/19 A298 RMK A01 T02340189  RH  076%=      5-min Rain = 0
KME1 292146Z 07009KT 23/18 A298 RMK A01 T02340182  RH  073%=      5-min Rain = 0
KME1 292147Z 06007KT 23/18 A298 RMK A01 T02310178  RH  072%=      5-min Rain = 0
KME1 292148Z 04006KT 23/18 A298 RMK A01 T02290181  RH  074%=      5-min Rain = 0
KME1 292149Z 06007KT 23/18 A2981 RMK A01 T02280181  RH  075%=      5-min Rain = 0
KME1 292150Z 05006KT 23/18 A2981 RMK A01 T02290183  RH  075%=      5-min Rain = 0
KME1 292151Z 06007KT 23/19 A2981 RMK A01 T02320186  RH  076%=      5-min Rain = 0
KME1 292152Z 08007KT 23/18 A2981 RMK A01 T02340182  RH  073%=      5-min Rain = 0
KME1 292153Z 06005KT 23/18 A2981 RMK A01 T02330180  RH  072%=      5-min Rain = 0
KME1 292154Z 05005KT 23/18 A2981 RMK A01 T02320183  RH  074%=      5-min Rain = 0
KME1 292155Z 05005KT 23/18 A2981 RMK A01 T02320184  RH  074%=      5-min Rain = 0
KME1 292156Z 05006KT 23/19 A2981 RMK A01 T02340190  RH  076%=      5-min Rain = 0
KME1 292157Z 07007KT 24/18 A2981 RMK A01 T02370183  RH  072%=      5-min Rain = 0
KME1 292158Z 06006KT 24/18 A2981 RMK A01 T02370180  RH  070%=      5-min Rain = 0
KME1 292159Z 04006KT 24/19 A2981 RMK A01 T02370186  RH  073%=      5-min Rain = 0
KME1 292200Z 05006KT 24/18 A2981 RMK A01 T02380181  RH  070%=      5-min Rain = 0
KME1 292201Z 06005KT 24/19 A2981 RMK A01 T02380188  RH  073%=      5-min Rain = 0
KME1 292202Z 06006KT 24/19 A2981 RMK A01 T02380186  RH  072%=      5-min Rain = 0
KME1 292203Z 05006KT 24/18 A2981 RMK A01 T02360183  RH  072%=      5-min Rain = 0
KME1 292204Z 05006KT 24/18 A2981 RMK A01 T02350181  RH  071%=      5-min Rain = 0
KME1 292205Z 05008KT 24/18 A2981 RMK A01 T02350179  RH  071%=      5-min Rain = 0
KME1 292206Z 07008KT 24/18 A2981 RMK A01 T02350179  RH  071%=      5-min Rain = 0
KME1 292207Z 05007KT 24/18 A2981 RMK A01 T02350182  RH  072%=      5-min Rain = 0
KME1 292208Z 06005KT 24/18 A2981 RMK A01 T02360184  RH  073%=      5-min Rain = 0
KME1 292209Z 08007KT 24/18 A2981 RMK A01 T02370182  RH  071%=      5-min Rain = 0
KME1 292210Z 08009KT 24/18 A2981 RMK A01 T02370178  RH  069%=      5-min Rain = 0
KME1 292211Z 08007KT 24/18 A2981 RMK A01 T02370177  RH  069%=      5-min Rain = 0
KME1 292212Z 08007KT 24/18 A2981 RMK A01 T02360175  RH  068%=      5-min Rain = 0
KME1 292213Z 07006KT 24/18 A2981 RMK A01 T02360177  RH  070%=      5-min Rain = 0
KME1 292214Z 07005KT 24/17 A2981 RMK A01 T02360174  RH  068%=      5-min Rain = 0
KME1 292215Z 07006KT 24/18 A2981 RMK A01 T02360176  RH  069%=      5-min Rain = 0
KME1 292216Z 07006KT 24/18 A2981 RMK A01 T02360177  RH  069%=      5-min Rain = 0
KME1 292217Z 08006KT 24/18 A2981 RMK A01 T02360178  RH  070%=      5-min Rain = 0
KME1 292218Z 06008KT 24/18 A2981 RMK A01 T02370184  RH  072%=      5-min Rain = 0
KME1 292219Z 06007KT 24/18 A2981 RMK A01 T02390176  RH  068%=      5-min Rain = 0
KME1 292220Z 06006KT 24/18 A2981 RMK A01 T02380181  RH  070%=      5-min Rain = 0
KME1 292221Z 06006KT 24/18 A2981 RMK A01 T02380177  RH  069%=      5-min Rain = 0
KME1 292222Z 04005KT 24/18 A2981 RMK A01 T02390180  RH  070%=      5-min Rain = 0
KME1 292223Z 04005KT 24/18 A2981 RMK A01 T02400182  RH  070%=      5-min Rain = 0
KME1 292224Z 07004KT 24/19 A2981 RMK A01 T02410185  RH  071%=      5-min Rain = 0
KME1 292225Z 06005KT 24/18 A2981 RMK A01 T02420183  RH  070%=      5-min Rain = 0
KME1 292226Z 08005KT 24/18 A2981 RMK A01 T02420179  RH  068%=      5-min Rain = 0
KME1 292227Z 08006KT 24/18 A2981 RMK A01 T02410178  RH  068%=      5-min Rain = 0
KME1 292228Z 04007KT 24/18 A2981 RMK A01 T02410180  RH  069%=      5-min Rain = 0
KME1 292229Z 03006KT 24/18 A2981 RMK A01 T02410180  RH  069%=      5-min Rain = 0
KME1 292230Z 05006KT 24/18 A2981 RMK A01 T02410180  RH  069%=      5-min Rain = 0
KME1 292231Z 07005KT 24/18 A2981 RMK A01 T02410181  RH  069%=      5-min Rain = 0
KME1 292232Z 05005KT 24/18 A2981 RMK A01 T02400181  RH  069%=      5-min Rain = 0
KME1 292233Z 06004KT 24/19 A2981 RMK A01 T02410185  RH  071%=      5-min Rain = 0
KME1 292234Z 06006KT 24/18 A2981 RMK A01 T02420184  RH  070%=      5-min Rain = 0
KME1 292235Z 07007KT 24/18 A2981 RMK A01 T02420179  RH  068%=      5-min Rain = 0
KME1 292236Z 04005KT 24/18 A2981 RMK A01 T02410181  RH  069%=      5-min Rain = 0
KME1 292237Z 05005KT 24/19 A2981 RMK A01 T02410186  RH  071%=      5-min Rain = 0
KME1 292238Z 05006KT 24/18 A2981 RMK A01 T02420184  RH  070%=      5-min Rain = 0
KME1 292239Z 06005KT 24/18 A2981 RMK A01 T02420181  RH  068%=      5-min Rain = 0
KME1 292240Z 04006KT 24/18 A2981 RMK A01 T02420178  RH  067%=      5-min Rain = 0
KME1 292241Z 04006KT 24/18 A2981 RMK A01 T02420182  RH  069%=      5-min Rain = 0
KME1 292242Z 04005KT 24/18 A2981 RMK A01 T02410184  RH  070%=      5-min Rain = 0
KME1 292243Z 03003KT 24/18 A2981 RMK A01 T02410183  RH  070%=      5-min Rain = 0
KME1 292244Z 03004KT 24/19 A2981 RMK A01 T02420187  RH  071%=      5-min Rain = 0
KME1 292245Z 06006KT 24/19 A2981 RMK A01 T02430189  RH  072%=      5-min Rain = 0
KME1 292246Z 07005KT 24/18 A2981 RMK A01 T02440184  RH  069%=      5-min Rain = 0
KME1 292247Z 08006KT 24/19 A2981 RMK A01 T02430187  RH  071%=      5-min Rain = 0
KME1 292248Z 07004KT 24/19 A2981 RMK A01 T02430187  RH  071%=      5-min Rain = 0
KME1 292249Z 04005KT 24/19 A2981 RMK A01 T02430187  RH  071%=      5-min Rain = 0
KME1 292250Z 03005KT 24/19 A298 RMK A01 T02430188  RH  071%=      5-min Rain = 0
KME1 292251Z 04002KT 24/18 A298 RMK A01 T02440182  RH  068%=      5-min Rain = 0
KME1 292252Z 07005KT 24/18 A298 RMK A01 T02430182  RH  069%=      5-min Rain = 0
KME1 292253Z 07005KT 24/19 A298 RMK A01 T02430188  RH  072%=      5-min Rain = 0
KME1 292254Z 05002KT 24/19 A298 RMK A01 T02440191  RH  072%=      5-min Rain = 0
KME1 292255Z 06004KT 25/19 A298 RMK A01 T02450190  RH  071%=      5-min Rain = 0
KME1 292256Z 07005KT 25/19 A298 RMK A01 T02450189  RH  071%=      5-min Rain = 0
KME1 292257Z 08005KT 25/19 A298 RMK A01 T02450190  RH  071%=      5-min Rain = 0
KME1 292258Z 07006KT 25/19 A298 RMK A01 T02450188  RH  071%=      5-min Rain = 0
KME1 292259Z 06005KT 25/19 A298 RMK A01 T02450189  RH  071%=      5-min Rain = 0
KME1 292300Z 08003KT 24/19 A298 RMK A01 T02440191  RH  072%=      5-min Rain = 0
KME1 292301Z 09006KT 24/19 A298 RMK A01 T02440189  RH  071%=      5-min Rain = 0
KME1 292302Z 06007KT 25/19 A2981 RMK A01 T02450190  RH  071%=      5-min Rain = 0
KME1 292303Z 06006KT 25/19 A2981 RMK A01 T02450189  RH  071%=      5-min Rain = 0
KME1 292304Z 06004KT 24/19 A2981 RMK A01 T02440185  RH  070%=      5-min Rain = 0
KME1 292305Z 08005KT 24/19 A298 RMK A01 T02430192  RH  073%=      5-min Rain = 0
KME1 292306Z 07006KT 24/19 A298 RMK A01 T02430189  RH  072%=      5-min Rain = 0
KME1 292307Z 08006KT 24/19 A298 RMK A01 T02430188  RH  071%=      5-min Rain = 0
KME1 292308Z 09006KT 24/19 A298 RMK A01 T02430188  RH  071%=      5-min Rain = 0
KME1 292309Z 08007KT 24/19 A298 RMK A01 T02430188  RH  071%=      5-min Rain = 0
KME1 292310Z 08008KT 24/19 A298 RMK A01 T02420190  RH  073%=      5-min Rain = 0
KME1 292311Z 08007KT 24/19 A298 RMK A01 T02420187  RH  071%=      5-min Rain = 0
KME1 292312Z 07006KT 24/19 A298 RMK A01 T02420187  RH  072%=      5-min Rain = 0
KME1 292313Z 06004KT 24/19 A298 RMK A01 T02420187  RH  072%=      5-min Rain = 0
KME1 292314Z 09003KT 24/19 A298 RMK A01 T02420189  RH  072%=      5-min Rain = 0
KME1 292315Z 08007KT 24/19 A298 RMK A01 T02420187  RH  071%=      5-min Rain = 0
KME1 292316Z 06007KT 24/19 A298 RMK A01 T02420186  RH  071%=      5-min Rain = 0
KME1 292317Z 07005KT 24/19 A298 RMK A01 T02420187  RH  071%=      5-min Rain = 0
KME1 292318Z 08005KT 24/19 A298 RMK A01 T02430186  RH  071%=      5-min Rain = 0
KME1 292319Z 09006KT 24/19 A298 RMK A01 T02420187  RH  071%=      5-min Rain = 0
KME1 292320Z 06004KT 24/19 A298 RMK A01 T02420187  RH  071%=      5-min Rain = 0
KME1 292321Z 06004KT 24/19 A298 RMK A01 T02430194  RH  074%=      5-min Rain = 0
KME1 292322Z 04006KT 24/19 A298 RMK A01 T02440191  RH  072%=      5-min Rain = 0
KME1 292323Z 06006KT 25/19 A298 RMK A01 T02450187  RH  070%=      5-min Rain = 0
KME1 292324Z 07006KT 24/19 A298 RMK A01 T02440190  RH  072%=      5-min Rain = 0
KME1 292325Z 07006KT 24/19 A298 RMK A01 T02440189  RH  071%=      5-min Rain = 0
KME1 292326Z 08005KT 24/19 A298 RMK A01 T02440187  RH  071%=      5-min Rain = 0
KME1 292327Z 06004KT 24/19 A298 RMK A01 T02440191  RH  072%=      5-min Rain = 0
KME1 292328Z 07005KT 24/19 A298 RMK A01 T02440186  RH  070%=      5-min Rain = 0
KME1 292329Z 08006KT 24/19 A298 RMK A01 T02430188  RH  071%=      5-min Rain = 0
KME1 292330Z 07008KT 24/19 A298 RMK A01 T02430185  RH  070%=      5-min Rain = 0
KME1 292331Z 07006KT 24/18 A298 RMK A01 T02420184  RH  070%=      5-min Rain = 0
KME1 292332Z 08005KT 24/19 A298 RMK A01 T02420186  RH  071%=      5-min Rain = 0
KME1 292333Z 08004KT 24/19 A298 RMK A01 T02420188  RH  072%=      5-min Rain = 0
KME1 292334Z 08005KT 24/19 A298 RMK A01 T02420187  RH  071%=      5-min Rain = 0
KME1 292335Z 07005KT 24/18 A298 RMK A01 T02430183  RH  069%=      5-min Rain = 0
KME1 292336Z 06003KT 24/19 A298 RMK A01 T02430188  RH  072%=      5-min Rain = 0
KME1 292337Z 05004KT 24/19 A298 RMK A01 T02430190  RH  072%=      5-min Rain = 0
KME1 292338Z 05005KT 24/19 A298 RMK A01 T02430190  RH  072%=      5-min Rain = 0
KME1 292339Z 05006KT 24/19 A298 RMK A01 T02440186  RH  070%=      5-min Rain = 0
KME1 292340Z 06004KT 24/19 A298 RMK A01 T02430189  RH  072%=      5-min Rain = 0
KME1 292341Z 07004KT 24/19 A298 RMK A01 T02440193  RH  073%=      5-min Rain = 0
KME1 292342Z 07008KT 24/19 A298 RMK A01 T02440188  RH  071%=      5-min Rain = 0
KME1 292343Z 06008KT 24/19 A298 RMK A01 T02440187  RH  070%=      5-min Rain = 0
KME1 292344Z 06006KT 24/18 A298 RMK A01 T02430184  RH  070%=      5-min Rain = 0
KME1 292345Z 05008KT 24/19 A2981 RMK A01 T02420186  RH  071%=      5-min Rain = 0
KME1 292346Z 06007KT 24/19 A2981 RMK A01 T02420185  RH  070%=      5-min Rain = 0
KME1 292347Z 05008KT 24/19 A2981 RMK A01 T02420187  RH  071%=      5-min Rain = 0
KME1 292348Z 06006KT 24/19 A2981 RMK A01 T02410187  RH  071%=      5-min Rain = 0
KME1 292349Z 05006KT 24/19 A2981 RMK A01 T02420189  RH  073%=      5-min Rain = 0
KME1 292350Z 05006KT 24/19 A2981 RMK A01 T02410187  RH  072%=      5-min Rain = 0
KME1 292351Z 05007KT 24/19 A2981 RMK A01 T02420187  RH  072%=      5-min Rain = 0
KME1 292352Z 06007KT 24/19 A2981 RMK A01 T02420186  RH  071%=      5-min Rain = 0
KME1 292353Z 06007KT 24/18 A2981 RMK A01 T02420183  RH  070%=      5-min Rain = 0
KME1 292354Z 06006KT 24/18 A2981 RMK A01 T02420184  RH  070%=      5-min Rain = 0
KME1 292355Z 05007KT 24/18 A2981 RMK A01 T02410184  RH  070%=      5-min Rain = 0
KME1 292356Z 05007KT 24/18 A2981 RMK A01 T02410183  RH  070%=      5-min Rain = 0
KME1 292357Z 06006KT 24/18 A2981 RMK A01 T02420183  RH  070%=      5-min Rain = 0
KME1 292358Z 07006KT 24/18 A2981 RMK A01 T02410184  RH  070%=      5-min Rain = 0
KME1 292359Z 07007KT 24/19 A2981 RMK A01 T02410187  RH  072%=      5-min Rain = 0
KME1 300000Z 07007KT 24/18 A2981 RMK A01 T02410184  RH  070%=      5-min Rain = 0
KME1 300001Z 07006KT 24/19 A2981 RMK A01 T02420187  RH  071%=      5-min Rain = 0
KME1 300002Z 06006KT 24/19 A2981 RMK A01 T02410185  RH  071%=      5-min Rain = 0
KME1 300003Z 07007KT 24/19 A2981 RMK A01 T02410186  RH  071%=      5-min Rain = 0
KME1 300004Z 05006KT 24/19 A2981 RMK A01 T02410187  RH  072%=      5-min Rain = 0
KME1 300005Z 05004KT 24/19 A2981 RMK A01 T02410187  RH  072%=      5-min Rain = 0
KME1 300006Z 04006KT 24/19 A2981 RMK A01 T02410189  RH  072%=      5-min Rain = 0
KME1 300007Z 06005KT 24/19 A2981 RMK A01 T02420191  RH  073%=      5-min Rain = 0
KME1 300008Z 04005KT 24/19 A2981 RMK A01 T02420191  RH  073%=      5-min Rain = 0
KME1 300009Z 05006KT 24/19 A2981 RMK A01 T02420190  RH  073%=      5-min Rain = 0
KME1 300010Z 05006KT 24/19 A2981 RMK A01 T02420189  RH  072%=      5-min Rain = 0
KME1 300011Z 06006KT 24/19 A2981 RMK A01 T02420189  RH  072%=      5-min Rain = 0
KME1 300012Z 05005KT 24/19 A2981 RMK A01 T02420188  RH  072%=      5-min Rain = 0
KME1 300013Z 06006KT 24/19 A2981 RMK A01 T02420191  RH  073%=      5-min Rain = 0
KME1 300014Z 05006KT 24/19 A2981 RMK A01 T02420191  RH  073%=      5-min Rain = 0
KME1 300015Z 05008KT 24/19 A2981 RMK A01 T02410191  RH  073%=      5-min Rain = 0
KME1 300016Z 05006KT 24/19 A2981 RMK A01 T02410189  RH  073%=      5-min Rain = 0
KME1 300017Z 06006KT 24/19 A2981 RMK A01 T02410192  RH  074%=      5-min Rain = 0
KME1 300018Z 06007KT 24/19 A2981 RMK A01 T02410190  RH  073%=      5-min Rain = 0
KME1 300019Z 05008KT 24/19 A2981 RMK A01 T02400189  RH  073%=      5-min Rain = 0
KME1 300020Z 05007KT 24/19 A2981 RMK A01 T02400189  RH  073%=      5-min Rain = 0
KME1 300021Z 06008KT 24/19 A2981 RMK A01 T02400188  RH  073%=      5-min Rain = 0
KME1 300022Z 06007KT 24/19 A2981 RMK A01 T02390188  RH  073%=      5-min Rain = 0
KME1 300023Z 06008KT 24/19 A2981 RMK A01 T02390189  RH  074%=      5-min Rain = 0
KME1 300024Z 06008KT 24/19 A2981 RMK A01 T02390189  RH  074%=      5-min Rain = 0
KME1 300025Z 07006KT 24/19 A2981 RMK A01 T02390189  RH  074%=      5-min Rain = 0
KME1 300026Z 06007KT 24/19 A2981 RMK A01 T02390191  RH  074%=      5-min Rain = 0
KME1 300027Z 05007KT 24/19 A2981 RMK A01 T02380191  RH  075%=      5-min Rain = 0
KME1 300028Z 06004KT 24/19 A2981 RMK A01 T02380190  RH  075%=      5-min Rain = 0
KME1 300029Z 08006KT 24/19 A2981 RMK A01 T02380192  RH  075%=      5-min Rain = 0
KME1 300030Z 06006KT 24/19 A2981 RMK A01 T02380190  RH  074%=      5-min Rain = 0
KME1 300031Z 05005KT 24/19 A2982 RMK A01 T02380192  RH  075%=      5-min Rain = 0
KME1 300032Z 05005KT 24/19 A2982 RMK A01 T02380193  RH  076%=      5-min Rain = 0
KME1 300033Z 05006KT 24/19 A2982 RMK A01 T02380192  RH  075%=      5-min Rain = 0
KME1 300034Z 05006KT 24/19 A2982 RMK A01 T02380193  RH  075%=      5-min Rain = 0
KME1 300035Z 05006KT 24/19 A2982 RMK A01 T02370190  RH  075%=      5-min Rain = 0
KME1 300036Z 06006KT 24/19 A2982 RMK A01 T02370190  RH  075%=      5-min Rain = 0
KME1 300037Z 06005KT 24/19 A2982 RMK A01 T02370191  RH  075%=      5-min Rain = 0
KME1 300038Z 06005KT 24/19 A2982 RMK A01 T02370192  RH  076%=      5-min Rain = 0
KME1 300039Z 06005KT 24/19 A2982 RMK A01 T02370194  RH  077%=      5-min Rain = 0
KME1 300040Z 06006KT 24/19 A2982 RMK A01 T02370193  RH  076%=      5-min Rain = 0
KME1 300041Z 06008KT 24/19 A2982 RMK A01 T02360190  RH  075%=      5-min Rain = 0
KME1 300042Z 06006KT 24/19 A2982 RMK A01 T02360188  RH  074%=      5-min Rain = 0
KME1 300043Z 06003KT 24/19 A2982 RMK A01 T02360191  RH  076%=      5-min Rain = 0
KME1 300044Z 06004KT 24/20 A2982 RMK A01 T02360195  RH  078%=      5-min Rain = 0
KME1 300045Z 05006KT 24/19 A2982 RMK A01 T02360194  RH  077%=      5-min Rain = 0
KME1 300046Z 05006KT 24/19 A2982 RMK A01 T02350191  RH  076%=      5-min Rain = 0
KME1 300047Z 05006KT 24/19 A2982 RMK A01 T02360193  RH  077%=      5-min Rain = 0
KME1 300048Z 05007KT 24/19 A2982 RMK A01 T02350190  RH  076%=      5-min Rain = 0
KME1 300049Z 05006KT 24/19 A2982 RMK A01 T02350191  RH  076%=      5-min Rain = 0
KME1 300050Z 05006KT 24/19 A2982 RMK A01 T02350192  RH  077%=      5-min Rain = 0
KME1 300051Z 05005KT 24/19 A2982 RMK A01 T02350193  RH  077%=      5-min Rain = 0
KME1 300052Z 05004KT 23/19 A2982 RMK A01 T02340193  RH  077%=      5-min Rain = 0
KME1 300053Z 05005KT 23/19 A2982 RMK A01 T02330193  RH  078%=      5-min Rain = 0
KME1 300054Z 06007KT 23/19 A2982 RMK A01 T02330192  RH  077%=      5-min Rain = 0
KME1 300055Z 06006KT 23/19 A2982 RMK A01 T02340192  RH  077%=      5-min Rain = 0
KME1 300056Z 05005KT 23/19 A2982 RMK A01 T02330192  RH  078%=      5-min Rain = 0
KME1 300057Z 06004KT 23/19 A2982 RMK A01 T02330194  RH  079%=      5-min Rain = 0
KME1 300058Z 06006KT 23/19 A2982 RMK A01 T02320194  RH  079%=      5-min Rain = 0
KME1 300059Z 06006KT 23/19 A2982 RMK A01 T02320193  RH  079%=      5-min Rain = 0
KME1 300100Z 06006KT 23/19 A2982 RMK A01 T02310193  RH  079%=      5-min Rain = 0
KME1 300101Z 05006KT 23/19 A2982 RMK A01 T02310192  RH  079%=      5-min Rain = 0
KME1 300102Z 06005KT 23/19 A2982 RMK A01 T02310193  RH  079%=      5-min Rain = 0
KME1 300103Z 06005KT 23/19 A2982 RMK A01 T02310192  RH  079%=      5-min Rain = 0
KME1 300104Z 06004KT 23/19 A2982 RMK A01 T02310193  RH  079%=      5-min Rain = 0
KME1 300105Z 05004KT 23/19 A2982 RMK A01 T02300193  RH  080%=      5-min Rain = 0
KME1 300106Z 06007KT 23/19 A2982 RMK A01 T02300192  RH  079%=      5-min Rain = 0
KME1 300107Z 06007KT 23/19 A2982 RMK A01 T02300191  RH  079%=      5-min Rain = 0
KME1 300108Z 06006KT 23/19 A2982 RMK A01 T02300191  RH  079%=      5-min Rain = 0
KME1 300109Z 06005KT 23/19 A2982 RMK A01 T02300191  RH  079%=      5-min Rain = 0
KME1 300110Z 05004KT 23/19 A2983 RMK A01 T02300192  RH  079%=      5-min Rain = 0
KME1 300111Z 05005KT 23/19 A2983 RMK A01 T02290193  RH  080%=      5-min Rain = 0
KME1 300112Z 05004KT 23/19 A2983 RMK A01 T02280192  RH  080%=      5-min Rain = 0
KME1 300113Z 04006KT 23/19 A2983 RMK A01 T02280192  RH  080%=      5-min Rain = 0
KME1 300114Z 05005KT 23/19 A2983 RMK A01 T02280192  RH  080%=      5-min Rain = 0
KME1 300115Z 05005KT 23/19 A2983 RMK A01 T02280193  RH  081%=      5-min Rain = 0
KME1 300116Z 06004KT 23/19 A2983 RMK A01 T02270192  RH  081%=      5-min Rain = 0
KME1 300117Z 05004KT 23/19 A2983 RMK A01 T02270193  RH  081%=      5-min Rain = 0
KME1 300118Z 05004KT 23/19 A2983 RMK A01 T02260194  RH  082%=      5-min Rain = 0
KME1 300119Z 06005KT 23/19 A2983 RMK A01 T02250193  RH  082%=      5-min Rain = 0
KME1 300120Z 06006KT 23/19 A2983 RMK A01 T02250193  RH  082%=      5-min Rain = 0
KME1 300121Z 06004KT 22/19 A2983 RMK A01 T02240192  RH  082%=      5-min Rain = 0
KME1 300122Z 06004KT 23/19 A2983 RMK A01 T02250193  RH  082%=      5-min Rain = 0
KME1 300123Z 06004KT 22/19 A2983 RMK A01 T02240193  RH  083%=      5-min Rain = 0
KME1 300124Z 06004KT 22/19 A2984 RMK A01 T02240194  RH  083%=      5-min Rain = 0
KME1 300125Z 06004KT 22/19 A2984 RMK A01 T02230193  RH  083%=      5-min Rain = 0
KME1 300126Z 07005KT 22/19 A2984 RMK A01 T02220193  RH  083%=      5-min Rain = 0
KME1 300127Z 07005KT 22/19 A2984 RMK A01 T02220193  RH  084%=      5-min Rain = 0
KME1 300128Z 06006KT 22/19 A2984 RMK A01 T02220191  RH  083%=      5-min Rain = 0
KME1 300129Z 07005KT 22/19 A2984 RMK A01 T02220191  RH  082%=      5-min Rain = 0
KME1 300130Z 07005KT 22/19 A2984 RMK A01 T02230192  RH  083%=      5-min Rain = 0
KME1 300131Z 08004KT 22/19 A2984 RMK A01 T02220192  RH  083%=      5-min Rain = 0
KME1 300132Z 07005KT 22/19 A2984 RMK A01 T02220192  RH  083%=      5-min Rain = 0
KME1 300133Z 07004KT 22/19 A2984 RMK A01 T02220191  RH  083%=      5-min Rain = 0
KME1 300134Z 07004KT 22/19 A2984 RMK A01 T02220192  RH  083%=      5-min Rain = 0
KME1 300135Z 06005KT 22/19 A2984 RMK A01 T02210193  RH  084%=      5-min Rain = 0
KME1 300136Z 06004KT 22/19 A2984 RMK A01 T02200192  RH  084%=      5-min Rain = 0
KME1 300137Z 06004KT 22/19 A2984 RMK A01 T02200193  RH  085%=      5-min Rain = 0
KME1 300138Z 06003KT 22/19 A2984 RMK A01 T02190193  RH  085%=      5-min Rain = 0
KME1 300139Z 06003KT 22/19 A2984 RMK A01 T02180193  RH  086%=      5-min Rain = 0
KME1 300140Z 06004KT 22/19 A2984 RMK A01 T02170193  RH  086%=      5-min Rain = 0
KME1 300141Z 06004KT 22/19 A2984 RMK A01 T02170194  RH  087%=      5-min Rain = 0
KME1 300142Z 07004KT 22/19 A2985 RMK A01 T02160193  RH  087%=      5-min Rain = 0
KME1 300143Z 07004KT 22/19 A2985 RMK A01 T02170194  RH  087%=      5-min Rain = 0
KME1 300144Z 07004KT 22/19 A2985 RMK A01 T02160194  RH  087%=      5-min Rain = 0
KME1 300145Z 07004KT 22/19 A2985 RMK A01 T02160194  RH  087%=      5-min Rain = 0
KME1 300146Z 07004KT 22/19 A2985 RMK A01 T02160194  RH  088%=      5-min Rain = 0
KME1 300147Z 06003KT 22/19 A2985 RMK A01 T02150194  RH  088%=      5-min Rain = 0
KME1 300148Z 06003KT 22/19 A2985 RMK A01 T02150194  RH  088%=      5-min Rain = 0
KME1 300149Z 06004KT 21/20 A2985 RMK A01 T02140195  RH  089%=      5-min Rain = 0
KME1 300150Z 06003KT 21/20 A2985 RMK A01 T02140195  RH  089%=      5-min Rain = 0
KME1 300151Z 07004KT 21/19 A2985 RMK A01 T02140194  RH  089%=      5-min Rain = 0
KME1 300152Z 06004KT 21/19 A2985 RMK A01 T02130194  RH  089%=      5-min Rain = 0
KME1 300153Z 06003KT 21/20 A2985 RMK A01 T02130195  RH  089%=      5-min Rain = 0
KME1 300154Z 06003KT 21/19 A2985 RMK A01 T02120194  RH  090%=      5-min Rain = 0
KME1 300155Z 06003KT 21/20 A2985 RMK A01 T02110195  RH  090%=      5-min Rain = 0
KME1 300156Z 06004KT 21/20 A2985 RMK A01 T02110195  RH  091%=      5-min Rain = 0
KME1 300157Z 06005KT 21/19 A2985 RMK A01 T02100194  RH  091%=      5-min Rain = 0
KME1 300158Z 05004KT 21/19 A2985 RMK A01 T02100194  RH  090%=      5-min Rain = 0
KME1 300159Z 05004KT 21/19 A2985 RMK A01 T02100193  RH  090%=      5-min Rain = 0
KME1 300200Z 04004KT 21/19 A2985 RMK A01 T02090193  RH  090%=      5-min Rain = 0
KME1 300201Z 05004KT 21/19 A2985 RMK A01 T02090193  RH  091%=      5-min Rain = 0
KME1 300202Z 04004KT 21/19 A2985 RMK A01 T02080193  RH  091%=      5-min Rain = 0
KME1 300203Z 05004KT 21/19 A2985 RMK A01 T02080192  RH  091%=      5-min Rain = 0
KME1 300204Z 04005KT 21/19 A2985 RMK A01 T02080192  RH  091%=      5-min Rain = 0
KME1 300205Z 05004KT 21/19 A2985 RMK A01 T02080192  RH  091%=      5-min Rain = 0
KME1 300206Z 05004KT 21/19 A2985 RMK A01 T02070192  RH  091%=      5-min Rain = 0
KME1 300207Z 05004KT 21/19 A2985 RMK A01 T02070191  RH  091%=      5-min Rain = 0
KME1 300208Z 05004KT 21/19 A2985 RMK A01 T02070191  RH  090%=      5-min Rain = 0
KME1 300209Z 04004KT 21/19 A2985 RMK A01 T02060190  RH  090%=      5-min Rain = 0
KME1 300210Z 04004KT 21/19 A2986 RMK A01 T02060190  RH  090%=      5-min Rain = 0
KME1 300211Z 05005KT 21/19 A2986 RMK A01 T02060189  RH  090%=      5-min Rain = 0
KME1 300212Z 05004KT 21/19 A2986 RMK A01 T02060189  RH  090%=      5-min Rain = 0
KME1 300213Z 06004KT 21/19 A2986 RMK A01 T02060189  RH  090%=      5-min Rain = 0
KME1 300214Z 05004KT 21/19 A2986 RMK A01 T02050189  RH  090%=      5-min Rain = 0
KME1 300215Z 05003KT 21/19 A2986 RMK A01 T02050189  RH  091%=      5-min Rain = 0
KME1 300216Z 05003KT 20/19 A2986 RMK A01 T02040189  RH  091%=      5-min Rain = 0
KME1 300217Z 05004KT 20/19 A2986 RMK A01 T02040188  RH  091%=      5-min Rain = 0
KME1 300218Z 05004KT 20/19 A2986 RMK A01 T02030187  RH  090%=      5-min Rain = 0
KME1 300219Z 06003KT 20/19 A2986 RMK A01 T02030187  RH  090%=      5-min Rain = 0
KME1 300220Z 05004KT 20/19 A2986 RMK A01 T02030187  RH  091%=      5-min Rain = 0
KME1 300221Z 05004KT 20/19 A2986 RMK A01 T02030187  RH  091%=      5-min Rain = 0
KME1 300222Z 04004KT 20/19 A2986 RMK A01 T02020187  RH  091%=      5-min Rain = 0
KME1 300223Z 04004KT 20/19 A2986 RMK A01 T02020187  RH  091%=      5-min Rain = 0
KME1 300224Z 03004KT 20/19 A2986 RMK A01 T02010188  RH  092%=      5-min Rain = 0
KME1 300225Z 04004KT 20/19 A2986 RMK A01 T02010187  RH  092%=      5-min Rain = 0
KME1 300226Z 04003KT 20/19 A2986 RMK A01 T02010187  RH  092%=      5-min Rain = 0
KME1 300227Z 04003KT 20/19 A2986 RMK A01 T02010188  RH  092%=      5-min Rain = 0
KME1 300228Z 04003KT 20/19 A2986 RMK A01 T02000188  RH  093%=      5-min Rain = 0
KME1 300229Z 04003KT 20/19 A2986 RMK A01 T02000188  RH  093%=      5-min Rain = 0
KME1 300230Z 04004KT 20/19 A2986 RMK A01 T01990188  RH  093%=      5-min Rain = 0
KME1 300231Z 04003KT 20/19 A2986 RMK A01 T01990189  RH  094%=      5-min Rain = 0
KME1 300232Z 04003KT 20/19 A2986 RMK A01 T01980189  RH  094%=      5-min Rain = 0
KME1 300233Z 04003KT 20/19 A2986 RMK A01 T01970188  RH  095%=      5-min Rain = 0
KME1 300234Z 04003KT 20/19 A2987 RMK A01 T01970188  RH  095%=      5-min Rain = 0
KME1 300235Z 03003KT 20/19 A2987 RMK A01 T01970188  RH  095%=      5-min Rain = 0
KME1 300236Z 04003KT 20/19 A2987 RMK A01 T01960188  RH  095%=      5-min Rain = 0
KME1 300237Z 04003KT 20/19 A2987 RMK A01 T01960188  RH  095%=      5-min Rain = 0
KME1 300238Z 04003KT 20/19 A2987 RMK A01 T01960188  RH  095%=      5-min Rain = 0
KME1 300239Z 04003KT 20/19 A2987 RMK A01 T01950188  RH  095%=      5-min Rain = 0
KME1 300240Z 04003KT 20/19 A2987 RMK A01 T01950188  RH  096%=      5-min Rain = 0
KME1 300241Z 04003KT 20/19 A2987 RMK A01 T01950188  RH  096%=      5-min Rain = 0
KME1 300242Z 03003KT 20/19 A2987 RMK A01 T01950188  RH  096%=      5-min Rain = 0
KME1 300243Z 03003KT 19/19 A2987 RMK A01 T01940188  RH  096%=      5-min Rain = 0
KME1 300244Z 03003KT 19/19 A2987 RMK A01 T01940188  RH  096%=      5-min Rain = 0
KME1 300245Z 03003KT 19/19 A2987 RMK A01 T01940189  RH  097%=      5-min Rain = 0
KME1 300246Z 03003KT 19/19 A2987 RMK A01 T01930189  RH  097%=      5-min Rain = 0
KME1 300247Z 02003KT 19/19 A2987 RMK A01 T01930189  RH  097%=      5-min Rain = 0
KME1 300248Z 03003KT 19/19 A2988 RMK A01 T01930188  RH  097%=      5-min Rain = 0
KME1 300249Z 02004KT 19/19 A2988 RMK A01 T01920188  RH  098%=      5-min Rain = 0
KME1 300250Z 02004KT 19/19 A2988 RMK A01 T01910188  RH  098%=      5-min Rain = 0
KME1 300251Z 01004KT 19/19 A2988 RMK A01 T01910189  RH  099%=      5-min Rain = 0
KME1 300252Z 02004KT 19/19 A2988 RMK A01 T01900190  RH  099%=      5-min Rain = 0
KME1 300253Z 02004KT 19/19 A2988 RMK A01 T01900190  RH  100%=      5-min Rain = 0
KME1 300254Z 01004KT 19/19 A2988 RMK A01 T01900190  RH  100%=      5-min Rain = 0
KME1 300255Z 02004KT 19/19 A2988 RMK A01 T01900190  RH  100%=      5-min Rain = 0
KME1 300256Z 02005KT 19/19 A2988 RMK A01 T01900190  RH  100%=      5-min Rain = 0
KME1 300257Z 03005KT 19/19 A2988 RMK A01 T01900190  RH  100%=      5-min Rain = 0
KME1 300258Z 03004KT 19/19 A2988 RMK A01 T01890189  RH  100%=      5-min Rain = 0
KME1 300259Z 04004KT 19/19 A2988 RMK A01 T01890189  RH  100%=      5-min Rain = 0
KME1 300300Z 04004KT 19/19 A2989 RMK A01 T01890189  RH  100%=      5-min Rain = 0
KME1 300301Z 04003KT 19/19 A2989 RMK A01 T01890189  RH  100%=      5-min Rain = 0
KME1 300302Z 04003KT 19/19 A2989 RMK A01 T01890189  RH  100%=      5-min Rain = 0
KME1 300303Z 04002KT 19/19 A2989 RMK A01 T01880188  RH  100%=      5-min Rain = 0
KME1 300304Z 04002KT 19/19 A2989 RMK A01 T01880189  RH  100%=      5-min Rain = 0
KME1 300305Z 04003KT 19/19 A2988 RMK A01 T01880189  RH  100%=      5-min Rain = 0
KME1 300306Z 04002KT 19/19 A2988 RMK A01 T01880189  RH  100%=      5-min Rain = 0
KME1 300307Z 04002KT 19/19 A2988 RMK A01 T01880188  RH  100%=      5-min Rain = 0
KME1 300308Z 03002KT 19/19 A2989 RMK A01 T01880188  RH  100%=      5-min Rain = 0
KME1 300309Z 03002KT 19/19 A2989 RMK A01 T01880188  RH  100%=      5-min Rain = 0
KME1 300310Z 03002KT 19/19 A2989 RMK A01 T01880188  RH  100%=      5-min Rain = 0
KME1 300311Z 02002KT 19/19 A2989 RMK A01 T01880188  RH  100%=      5-min Rain = 0
KME1 300312Z 02003KT 19/19 A2989 RMK A01 T01880188  RH  100%=      5-min Rain = 0
KME1 300313Z 02003KT 19/19 A2989 RMK A01 T01880188  RH  100%=      5-min Rain = 0
KME1 300314Z 03003KT 19/19 A2989 RMK A01 T01870188  RH  100%=      5-min Rain = 0
KME1 300315Z 02003KT 19/19 A2989 RMK A01 T01870188  RH  100%=      5-min Rain = 0
KME1 300316Z 01003KT 19/19 A2989 RMK A01 T01870188  RH  100%=      5-min Rain = 0
KME1 300317Z 01003KT 19/19 A2989 RMK A01 T01870187  RH  100%=      5-min Rain = 0
KME1 300318Z 01004KT 19/19 A2989 RMK A01 T01870187  RH  100%=      5-min Rain = 0
KME1 300319Z 00004KT 19/19 A2989 RMK A01 T01870187  RH  100%=      5-min Rain = 0
KME1 300320Z 00004KT 19/19 A2989 RMK A01 T01860187  RH  100%=      5-min Rain = 0
KME1 300321Z 00004KT 19/19 A2989 RMK A01 T01860186  RH  100%=      5-min Rain = 0
KME1 300322Z 00004KT 19/19 A2989 RMK A01 T01860186  RH  100%=      5-min Rain = 0
KME1 300323Z 01004KT 19/19 A2989 RMK A01 T01850186  RH  100%=      5-min Rain = 0
KME1 300324Z 01004KT 19/19 A2989 RMK A01 T01850185  RH  100%=      5-min Rain = 0
KME1 300325Z 00004KT 19/19 A299 RMK A01 T01850185  RH  100%=      5-min Rain = 0
KME1 300326Z 00004KT 19/19 A299 RMK A01 T01850185  RH  100%=      5-min Rain = 0
KME1 300327Z 00004KT 19/19 A299 RMK A01 T01850185  RH  100%=      5-min Rain = 0
KME1 300328Z 00004KT 18/19 A299 RMK A01 T01840185  RH  100%=      5-min Rain = 0
KME1 300329Z 00004KT 18/18 A299 RMK A01 T01840184  RH  100%=      5-min Rain = 0
KME1 300330Z 00004KT 18/18 A299 RMK A01 T01840184  RH  100%=      5-min Rain = 0
KME1 300331Z 01004KT 18/18 A299 RMK A01 T01840184  RH  100%=      5-min Rain = 0
KME1 300332Z 01004KT 18/18 A299 RMK A01 T01840184  RH  100%=      5-min Rain = 0
KME1 300333Z 01003KT 18/18 A299 RMK A01 T01840184  RH  100%=      5-min Rain = 0
KME1 300334Z 01003KT 18/18 A299 RMK A01 T01840184  RH  100%=      5-min Rain = 0
KME1 300335Z 01003KT 18/18 A299 RMK A01 T01840184  RH  100%=      5-min Rain = 0
KME1 300336Z 01003KT 18/18 A299 RMK A01 T01830183  RH  100%=      5-min Rain = 0
KME1 300337Z 01003KT 18/18 A2991 RMK A01 T01830184  RH  100%=      5-min Rain = 0
KME1 300338Z 01003KT 18/18 A2991 RMK A01 T01830183  RH  100%=      5-min Rain = 0
KME1 300339Z 01002KT 18/18 A2991 RMK A01 T01830183  RH  100%=      5-min Rain = 0
KME1 300340Z 00002KT 18/18 A2991 RMK A01 T01830184  RH  100%=      5-min Rain = 0
KME1 300341Z 36002KT 18/18 A2991 RMK A01 T01840184  RH  100%=      5-min Rain = 0
KME1 300342Z 36003KT 18/18 A2991 RMK A01 T01840184  RH  100%=      5-min Rain = 0
KME1 300343Z 36003KT 18/18 A2991 RMK A01 T01840184  RH  100%=      5-min Rain = 0
KME1 300344Z 35004KT 18/18 A2991 RMK A01 T01840184  RH  100%=      5-min Rain = 0
KME1 300345Z 36003KT 18/18 A2991 RMK A01 T01840184  RH  100%=      5-min Rain = 0
KME1 300346Z 36003KT 18/18 A2991 RMK A01 T01840184  RH  100%=      5-min Rain = 0
KME1 300347Z 00003KT 18/18 A2991 RMK A01 T01840184  RH  100%=      5-min Rain = 0
KME1 300348Z 01003KT 18/18 A2991 RMK A01 T01840184  RH  100%=      5-min Rain = 0
KME1 300349Z 02003KT 18/18 A2991 RMK A01 T01840184  RH  100%=      5-min Rain = 0
KME1 300350Z 02002KT 18/18 A2991 RMK A01 T01840184  RH  100%=      5-min Rain = 0
KME1 300351Z 02002KT 18/18 A2991 RMK A01 T01840184  RH  100%=      5-min Rain = 0
KME1 300352Z 02002KT 18/18 A2991 RMK A01 T01840184  RH  100%=      5-min Rain = 0
KME1 300353Z 02002KT 18/18 A2991 RMK A01 T01840184  RH  100%=      5-min Rain = 0
KME1 300354Z 02002KT 18/18 A2992 RMK A01 T01840184  RH  100%=      5-min Rain = 0
KME1 300355Z 02002KT 18/18 A2992 RMK A01 T01840184  RH  100%=      5-min Rain = 0
KME1 300356Z 02002KT 18/18 A2992 RMK A01 T01840184  RH  100%=      5-min Rain = 0
KME1 300357Z 02003KT 18/18 A2992 RMK A01 T01840184  RH  100%=      5-min Rain = 0
KME1 300358Z 02003KT 18/18 A2991 RMK A01 T01840184  RH  100%=      5-min Rain = 0
KME1 300359Z 02003KT 18/18 A2991 RMK A01 T01840184  RH  100%=      5-min Rain = 0
KME1 300400Z 01003KT 18/18 A2991 RMK A01 T01840184  RH  100%=      5-min Rain = 0
KME1 300401Z 01003KT 18/18 A2991 RMK A01 T01840183  RH  100%=      5-min Rain = 0
KME1 300402Z 00004KT 18/18 A2991 RMK A01 T01830183  RH  100%=      5-min Rain = 0
KME1 300403Z 00004KT 18/18 A2992 RMK A01 T01830183  RH  100%=      5-min Rain = 0
KME1 300404Z 00004KT 18/18 A2992 RMK A01 T01820182  RH  100%=      5-min Rain = 0
KME1 300405Z 00004KT 18/18 A2992 RMK A01 T01820182  RH  100%=      5-min Rain = 0
KME1 300406Z 00004KT 18/18 A2992 RMK A01 T01820182  RH  100%=      5-min Rain = 0
KME1 300407Z 01004KT 18/18 A2992 RMK A01 T01820182  RH  100%=      5-min Rain = 0
KME1 300408Z 01004KT 18/18 A2992 RMK A01 T01820182  RH  100%=      5-min Rain = 0
KME1 300409Z 01004KT 18/18 A2992 RMK A01 T01820182  RH  100%=      5-min Rain = 0
KME1 300410Z 01004KT 18/18 A2992 RMK A01 T01810182  RH  100%=      5-min Rain = 0
KME1 300411Z 01004KT 18/18 A2992 RMK A01 T01820182  RH  100%=      5-min Rain = 0
KME1 300412Z 00004KT 18/18 A2992 RMK A01 T01810182  RH  100%=      5-min Rain = 0
KME1 300413Z 00004KT 18/18 A2992 RMK A01 T01810181  RH  100%=      5-min Rain = 0
KME1 300414Z 00003KT 18/18 A2992 RMK A01 T01810181  RH  100%=      5-min Rain = 0
KME1 300415Z 00004KT 18/18 A2992 RMK A01 T01800181  RH  100%=      5-min Rain = 0
KME1 300416Z 00004KT 18/18 A2992 RMK A01 T01810181  RH  100%=      5-min Rain = 0
KME1 300417Z 00004KT 18/18 A2992 RMK A01 T01800181  RH  100%=      5-min Rain = 0
KME1 300418Z 36004KT 18/18 A2992 RMK A01 T01800180  RH  100%=      5-min Rain = 0
KME1 300419Z 00004KT 18/18 A2992 RMK A01 T01800180  RH  100%=      5-min Rain = 0
KME1 300420Z 00004KT 18/18 A2992 RMK A01 T01800180  RH  100%=      5-min Rain = 0
KME1 300421Z 00004KT 18/18 A2992 RMK A01 T01800181  RH  100%=      5-min Rain = 0
KME1 300422Z 01004KT 18/18 A2992 RMK A01 T01800180  RH  100%=      5-min Rain = 0
KME1 300423Z 01004KT 18/18 A2992 RMK A01 T01800180  RH  100%=      5-min Rain = 0
KME1 300424Z 01003KT 18/18 A2992 RMK A01 T01800180  RH  100%=      5-min Rain = 0
KME1 300425Z 00003KT 18/18 A2992 RMK A01 T01790180  RH  100%=      5-min Rain = 0
KME1 300426Z 00003KT 18/18 A2992 RMK A01 T01790179  RH  100%=      5-min Rain = 0
KME1 300427Z 00004KT 18/18 A2992 RMK A01 T01790179  RH  100%=      5-min Rain = 0
KME1 300428Z 01004KT 18/18 A2992 RMK A01 T01780178  RH  100%=      5-min Rain = 0
KME1 300429Z 00005KT 18/18 A2992 RMK A01 T01780179  RH  100%=      5-min Rain = 0
KME1 300430Z 00005KT 18/18 A2992 RMK A01 T01780178  RH  100%=      5-min Rain = 0
KME1 300431Z 00005KT 18/18 A2992 RMK A01 T01780178  RH  100%=      5-min Rain = 0
KME1 300432Z 00005KT 18/18 A2992 RMK A01 T01780179  RH  100%=      5-min Rain = 0
KME1 300433Z 00005KT 18/18 A2992 RMK A01 T01790179  RH  100%=      5-min Rain = 0
KME1 300434Z 00006KT 18/18 A2992 RMK A01 T01790179  RH  100%=      5-min Rain = 0
KME1 300435Z 00006KT 18/18 A2992 RMK A01 T01790179  RH  100%=      5-min Rain = 0
KME1 300436Z 00006KT 18/18 A2992 RMK A01 T01790180  RH  100%=      5-min Rain = 0
KME1 300437Z 00006KT 18/18 A2992 RMK A01 T01800180  RH  100%=      5-min Rain = 0
KME1 300438Z 00006KT 18/18 A2992 RMK A01 T01810181  RH  100%=      5-min Rain = 0
KME1 300439Z 01006KT 18/18 A2992 RMK A01 T01800181  RH  100%=      5-min Rain = 0
KME1 300440Z 00006KT 18/18 A2992 RMK A01 T01810181  RH  100%=      5-min Rain = 0
KME1 300441Z 01005KT 18/18 A2992 RMK A01 T01810181  RH  100%=      5-min Rain = 0
KME1 300442Z 01005KT 18/18 A2992 RMK A01 T01810181  RH  100%=      5-min Rain = 0
KME1 300443Z 01005KT 18/18 A2992 RMK A01 T01810181  RH  100%=      5-min Rain = 0
KME1 300444Z 00006KT 18/18 A2992 RMK A01 T01800180  RH  100%=      5-min Rain = 0
KME1 300445Z 01006KT 18/18 A2992 RMK A01 T01810181  RH  100%=      5-min Rain = 0
KME1 300446Z 00005KT 18/18 A2992 RMK A01 T01810181  RH  100%=      5-min Rain = 0
KME1 300447Z 00005KT 18/18 A2993 RMK A01 T01810181  RH  100%=      5-min Rain = 0
KME1 300448Z 00005KT 18/18 A2993 RMK A01 T01810181  RH  100%=      5-min Rain = 0
KME1 300449Z 36005KT 18/18 A2993 RMK A01 T01810181  RH  100%=      5-min Rain = 0
KME1 300450Z 36005KT 18/18 A2993 RMK A01 T01810181  RH  100%=      5-min Rain = 0
KME1 300451Z 36006KT 18/18 A2993 RMK A01 T01810181  RH  100%=      5-min Rain = 0
KME1 300452Z 36006KT 18/18 A2993 RMK A01 T01810181  RH  100%=      5-min Rain = 0
KME1 300453Z 00006KT 18/18 A2993 RMK A01 T01810181  RH  100%=      5-min Rain = 0
KME1 300454Z 00006KT 18/18 A2993 RMK A01 T01800181  RH  100%=      5-min Rain = 0
KME1 300455Z 00006KT 18/18 A2993 RMK A01 T01810181  RH  100%=      5-min Rain = 0
KME1 300456Z 00006KT 18/18 A2993 RMK A01 T01810181  RH  100%=      5-min Rain = 0
KME1 300457Z 00006KT 18/18 A2993 RMK A01 T01800181  RH  100%=      5-min Rain = 0
KME1 300458Z 00005KT 18/18 A2993 RMK A01 T01800180  RH  100%=      5-min Rain = 0
KME1 300459Z 00005KT 18/18 A2992 RMK A01 T01810181  RH  100%=      5-min Rain = 0

Page generated in 0.1257 seconds.